Time,TemperatureF,DewpointF,PressureIn,WindDirection,WindDirectionDegrees,WindSpeedMPH,WindSpeedGustMPH,Humidity,HourlyPrecipIn,Conditions,Clouds,dailyrainin,SoftwareType,DateUTC
2013-04-23 00:01:00,50.5,16.8,30.34,SE,127,0.0,0.0,26,0.00,CLR,,0.00,WeatherDisplay:10.37,2013-04-23 04:01:00,
2013-04-23 00:06:00,50.3,17.5,30.34,NE,38,3.4,6.9,27,0.00,CLR,,0.00,WeatherDisplay:10.37,2013-04-23 04:06:00,
2013-04-23 00:07:00,50.4,17.6,30.34,East,95,1.2,6.9,27,0.00,CLR,,0.00,WeatherDisplay:10.37,2013-04-23 04:07:00,
2013-04-23 00:11:00,50.1,18.2,30.34,NE,56,6.8,9.2,28,0.00,CLR,,0.00,WeatherDisplay:10.37,2013-04-23 04:11:00,
2013-04-23 00:12:00,50.1,18.2,30.34,East,93,5.3,8.1,28,0.00,CLR,,0.00,WeatherDisplay:10.37,2013-04-23 04:12:00,
2013-04-23 00:16:00,50.1,19.0,30.34,ENE,76,1.6,5.8,29,0.00,CLR,,0.00,WeatherDisplay:10.37,2013-04-23 04:16:00,
2013-04-23 00:17:00,50.2,17.5,30.34,NE,52,3.0,9.2,27,0.00,CLR,,0.00,WeatherDisplay:10.37,2013-04-23 04:17:00,
2013-04-23 00:21:00,50.1,19.8,30.34,East,93,5.7,6.9,30,0.00,CLR,,0.00,WeatherDisplay:10.37,2013-04-23 04:21:00,
2013-04-23 00:22:00,50.2,18.3,30.34,East,99,6.0,8.1,28,0.00,CLR,,0.00,WeatherDisplay:10.37,2013-04-23 04:22:00,
2013-04-23 00:26:00,50.2,19.1,30.34,East,83,3.0,3.4,29,0.00,CLR,,0.00,WeatherDisplay:10.37,2013-04-23 04:26:00,
2013-04-23 00:27:00,50.3,18.4,30.34,East,83,1.5,6.9,28,0.00,CLR,,0.00,WeatherDisplay:10.37,2013-04-23 04:27:00,
2013-04-23 00:31:00,50.2,18.3,30.34,SE,137,5.8,7.4,28,0.00,CLR,,0.00,WeatherDisplay:10.37,2013-04-23 04:31:00,
2013-04-23 00:32:00,50.3,20.8,30.34,East,82,6.4,10.4,31,0.00,CLR,,0.00,WeatherDisplay:10.37,2013-04-23 04:32:00,
2013-04-23 00:33:00,50.2,19.1,30.34,East,79,5.2,8.1,29,0.00,CLR,,0.00,WeatherDisplay:10.37,2013-04-23 04:33:00,
2013-04-23 00:36:00,50.2,19.9,30.34,SE,143,0.0,3.5,30,0.00,CLR,,0.00,WeatherDisplay:10.37,2013-04-23 04:36:00,
2013-04-23 00:37:00,50.2,21.4,30.34,SE,143,0.0,0.0,32,0.00,CLR,,0.00,WeatherDisplay:10.37,2013-04-23 04:37:00,
2013-04-23 00:38:00,50.2,20.7,30.34,SE,143,0.0,0.0,31,0.00,CLR,,0.00,WeatherDisplay:10.37,2013-04-23 04:38:00,
2013-04-23 00:41:00,50.0,22.0,30.34,SE,133,1.9,4.4,33,0.00,CLR,,0.00,WeatherDisplay:10.37,2013-04-23 04:41:00,
2013-04-23 00:42:00,50.2,22.2,30.34,SE,140,3.6,5.8,33,0.00,CLR,,0.00,WeatherDisplay:10.37,2013-04-23 04:42:00,
2013-04-23 00:43:00,50.1,20.6,30.34,SE,124,2.0,6.4,31,0.00,CLR,,0.00,WeatherDisplay:10.37,2013-04-23 04:43:00,
2013-04-23 00:46:00,50.2,22.2,30.34,ESE,116,2.6,4.6,33,0.00,CLR,,0.00,WeatherDisplay:10.37,2013-04-23 04:46:00,
2013-04-23 00:47:00,50.3,22.3,30.34,SE,136,0.6,4.6,33,0.00,CLR,,0.00,WeatherDisplay:10.37,2013-04-23 04:47:00,
2013-04-23 00:48:00,50.3,20.0,30.34,East,89,4.2,5.8,30,0.00,CLR,,0.00,WeatherDisplay:10.37,2013-04-23 04:48:00,
2013-04-23 00:49:00,50.2,19.9,30.34,ESE,110,4.8,5.2,30,0.00,CLR,,0.00,WeatherDisplay:10.37,2013-04-23 04:49:00,
2013-04-23 00:52:00,50.1,21.3,30.34,East,82,5.4,6.9,32,0.00,CLR,,0.00,WeatherDisplay:10.37,2013-04-23 04:52:00,
2013-04-23 00:53:00,49.9,21.9,30.34,East,82,1.6,5.8,33,0.00,CLR,,0.00,WeatherDisplay:10.37,2013-04-23 04:53:00,
2013-04-23 00:54:00,49.9,22.6,30.34,ESE,121,0.1,3.5,34,0.00,CLR,,0.00,WeatherDisplay:10.37,2013-04-23 04:54:00,
2013-04-23 00:57:00,50.2,22.9,30.34,SE,126,4.1,6.9,34,0.00,CLR,,0.00,WeatherDisplay:10.37,2013-04-23 04:57:00,
2013-04-23 00:58:00,50.1,21.3,30.34,ESE,112,3.7,6.9,32,0.00,CLR,,0.00,WeatherDisplay:10.37,2013-04-23 04:58:00,
2013-04-23 00:59:00,50.1,21.3,30.34,ESE,112,0.7,4.6,32,0.00,CLR,,0.00,WeatherDisplay:10.37,2013-04-23 04:59:00,
2013-04-23 01:02:00,50.1,22.1,30.34,East,79,2.8,7.3,33,0.00,CLR,,0.00,WeatherDisplay:10.37,2013-04-23 05:02:00,
2013-04-23 01:03:00,49.8,20.3,30.34,East,79,4.8,8.1,31,0.00,CLR,,0.00,WeatherDisplay:10.37,2013-04-23 05:03:00,
2013-04-23 01:04:00,50.1,21.3,30.34,ENE,71,3.1,8.8,32,0.00,CLR,,0.00,WeatherDisplay:10.37,2013-04-23 05:04:00,
2013-04-23 01:07:00,50.1,22.1,30.34,East,86,3.3,8.1,33,0.00,CLR,,0.00,WeatherDisplay:10.37,2013-04-23 05:07:00,
2013-04-23 01:09:00,50.1,22.8,30.33,East,83,0.6,3.5,34,0.00,CLR,,0.00,WeatherDisplay:10.37,2013-04-23 05:09:00,
2013-04-23 01:13:00,49.9,23.3,30.34,ESE,119,7.7,9.2,35,0.00,CLR,,0.00,WeatherDisplay:10.37,2013-04-23 05:13:00,
2013-04-23 01:14:00,50.1,22.8,30.33,SSE,160,6.2,10.4,34,0.00,CLR,,0.00,WeatherDisplay:10.37,2013-04-23 05:14:00,
2013-04-23 01:18:00,49.7,21.0,30.34,SE,140,5.8,10.4,32,0.00,CLR,,0.00,WeatherDisplay:10.37,2013-04-23 05:18:00,
2013-04-23 01:19:00,49.6,21.6,30.33,ESE,109,7.5,10.4,33,0.00,CLR,,0.00,WeatherDisplay:10.37,2013-04-23 05:19:00,
2013-04-23 01:20:00,49.8,22.5,30.33,ESE,114,6.1,10.4,34,0.00,CLR,,0.00,WeatherDisplay:10.37,2013-04-23 05:20:00,
2013-04-23 01:23:00,49.5,22.3,30.33,ENE,75,0.0,0.0,34,0.00,CLR,,0.00,WeatherDisplay:10.37,2013-04-23 05:23:00,
2013-04-23 01:24:00,49.9,22.6,30.33,ENE,75,0.0,0.0,34,0.00,CLR,,0.00,WeatherDisplay:10.37,2013-04-23 05:24:00,
2013-04-23 01:25:00,49.7,22.4,30.33,ENE,78,1.9,5.2,34,0.00,CLR,,0.00,WeatherDisplay:10.37,2013-04-23 05:25:00,
2013-04-23 01:28:00,49.8,22.5,30.33,East,93,4.6,6.9,34,0.00,CLR,,0.00,WeatherDisplay:10.37,2013-04-23 05:28:00,
2013-04-23 01:29:00,49.9,24.0,30.33,ESE,107,4.6,8.3,36,0.00,CLR,,0.00,WeatherDisplay:10.37,2013-04-23 05:29:00,
2013-04-23 01:30:00,49.8,23.9,30.33,SE,130,5.4,11.5,36,0.00,CLR,,0.00,WeatherDisplay:10.37,2013-04-23 05:30:00,
2013-04-23 01:33:00,49.8,22.5,30.33,ESE,112,6.0,7.4,34,0.00,CLR,,0.00,WeatherDisplay:10.37,2013-04-23 05:33:00,
2013-04-23 01:35:00,49.7,22.4,30.33,ESE,110,4.8,7.0,34,0.00,CLR,,0.00,WeatherDisplay:10.37,2013-04-23 05:35:00,
2013-04-23 01:39:00,49.6,22.3,30.33,SE,136,6.3,10.4,34,0.00,CLR,,0.00,WeatherDisplay:10.37,2013-04-23 05:39:00,
2013-04-23 01:40:00,49.9,24.0,30.33,East,99,6.0,10.4,36,0.00,CLR,,0.00,WeatherDisplay:10.37,2013-04-23 05:40:00,
2013-04-23 01:44:00,49.2,22.0,30.33,ENE,58,3.9,7.5,34,0.00,CLR,,0.00,WeatherDisplay:10.37,2013-04-23 05:44:00,
2013-04-23 01:45:00,49.4,22.9,30.33,ESE,107,5.5,8.1,35,0.00,CLR,,0.00,WeatherDisplay:10.37,2013-04-23 05:45:00,
2013-04-23 01:46:00,49.5,23.6,30.33,East,80,4.0,5.8,36,0.00,CLR,,0.00,WeatherDisplay:10.37,2013-04-23 05:46:00,
2013-04-23 01:49:00,49.4,22.2,30.33,NE,55,6.0,6.9,34,0.00,CLR,,0.00,WeatherDisplay:10.37,2013-04-23 05:49:00,
2013-04-23 01:50:00,49.6,22.3,30.33,SE,127,5.7,8.1,34,0.00,CLR,,0.00,WeatherDisplay:10.37,2013-04-23 05:50:00,
2013-04-23 01:51:00,49.3,22.8,30.33,East,93,3.2,6.9,35,0.00,CLR,,0.00,WeatherDisplay:10.37,2013-04-23 05:51:00,
2013-04-23 01:52:00,49.4,22.9,30.33,NE,47,4.1,5.8,35,0.00,CLR,,0.00,WeatherDisplay:10.37,2013-04-23 05:52:00,
2013-04-23 01:54:00,49.9,25.3,30.33,ESE,117,4.8,8.1,38,0.00,CLR,,0.00,WeatherDisplay:10.37,2013-04-23 05:54:00,
2013-04-23 01:55:00,50.0,24.7,30.33,East,85,1.7,5.8,37,0.00,CLR,,0.00,WeatherDisplay:10.37,2013-04-23 05:55:00,
2013-04-23 01:56:00,49.9,23.3,30.33,East,85,0.0,0.0,35,0.00,CLR,,0.00,WeatherDisplay:10.37,2013-04-23 05:56:00,
2013-04-23 01:57:00,49.7,23.8,30.33,ENE,59,0.3,2.1,36,0.00,CLR,,0.00,WeatherDisplay:10.37,2013-04-23 05:57:00,
2013-04-23 01:59:00,50.1,23.5,30.33,ENE,59,0.0,0.0,35,0.00,CLR,,0.00,WeatherDisplay:10.37,2013-04-23 05:59:00,
2013-04-23 02:00:00,49.8,23.2,30.33,ENE,59,0.0,0.0,35,0.00,CLR,,0.00,WeatherDisplay:10.37,2013-04-23 06:00:00,
2013-04-23 02:01:00,49.9,23.3,30.33,ENE,59,0.0,0.0,35,0.00,CLR,,0.00,WeatherDisplay:10.37,2013-04-23 06:01:00,
2013-04-23 02:02:00,50.0,22.7,30.33,East,100,1.3,4.4,34,0.00,CLR,,0.00,WeatherDisplay:10.37,2013-04-23 06:02:00,
2013-04-23 02:05:00,49.9,22.6,30.33,SSE,147,4.6,8.1,34,0.00,CLR,,0.00,WeatherDisplay:10.37,2013-04-23 06:05:00,
2013-04-23 02:06:00,49.9,24.0,30.33,East,93,3.7,6.9,36,0.00,CLR,,0.00,WeatherDisplay:10.37,2013-04-23 06:06:00,
2013-04-23 02:07:00,49.6,22.3,30.33,East,92,5.6,6.9,34,0.00,CLR,,0.00,WeatherDisplay:10.37,2013-04-23 06:07:00,
2013-04-23 02:10:00,49.8,23.9,30.33,SSE,150,3.5,7.3,36,0.00,CLR,,0.00,WeatherDisplay:10.37,2013-04-23 06:10:00,
2013-04-23 02:11:00,49.8,23.9,30.32,ENE,66,5.5,6.9,36,0.00,CLR,,0.00,WeatherDisplay:10.37,2013-04-23 06:11:00,
2013-04-23 02:12:00,49.3,22.8,30.32,East,80,3.5,4.6,35,0.00,CLR,,0.00,WeatherDisplay:10.37,2013-04-23 06:12:00,
2013-04-23 02:15:00,49.2,23.4,30.32,ENE,64,1.8,4.6,36,0.00,CLR,,0.00,WeatherDisplay:10.37,2013-04-23 06:15:00,
2013-04-23 02:16:00,49.2,23.4,30.32,ENE,64,0.9,5.8,36,0.00,CLR,,0.00,WeatherDisplay:10.37,2013-04-23 06:16:00,
2013-04-23 02:17:00,49.3,23.4,30.32,ENE,64,0.0,0.0,36,0.00,CLR,,0.00,WeatherDisplay:10.37,2013-04-23 06:17:00,
2013-04-23 02:21:00,49.1,23.3,30.32,East,82,0.3,4.6,36,0.00,CLR,,0.00,WeatherDisplay:10.37,2013-04-23 06:21:00,
2013-04-23 02:22:00,49.1,23.3,30.32,East,82,0.0,0.0,36,0.00,CLR,,0.00,WeatherDisplay:10.37,2013-04-23 06:22:00,
2013-04-23 02:23:00,49.6,23.7,30.32,East,82,0.0,0.0,36,0.00,CLR,,0.00,WeatherDisplay:10.37,2013-04-23 06:23:00,
2013-04-23 02:26:00,49.5,24.9,30.32,East,93,3.5,4.6,38,0.00,CLR,,0.00,WeatherDisplay:10.37,2013-04-23 06:26:00,
2013-04-23 02:27:00,49.3,23.4,30.32,SE,136,4.9,8.1,36,0.00,CLR,,0.00,WeatherDisplay:10.37,2013-04-23 06:27:00,
2013-04-23 02:28:00,49.4,24.8,30.32,East,96,4.5,8.1,38,0.00,CLR,,0.00,WeatherDisplay:10.37,2013-04-23 06:28:00,
2013-04-23 02:31:00,49.3,24.7,30.32,ENE,78,0.4,3.5,38,0.00,CLR,,0.00,WeatherDisplay:10.37,2013-04-23 06:31:00,
2013-04-23 02:32:00,49.5,24.9,30.32,ENE,78,0.0,0.0,38,0.00,CLR,,0.00,WeatherDisplay:10.37,2013-04-23 06:32:00,
2013-04-23 02:33:00,49.7,23.1,30.32,ENE,78,0.0,0.0,35,0.00,CLR,,0.00,WeatherDisplay:10.37,2013-04-23 06:33:00,
2013-04-23 02:36:00,49.8,24.5,30.32,ENE,78,0.0,0.0,37,0.00,CLR,,0.00,WeatherDisplay:10.37,2013-04-23 06:36:00,
2013-04-23 02:37:00,49.9,23.3,30.32,East,93,0.0,3.2,35,0.00,CLR,,0.00,WeatherDisplay:10.37,2013-04-23 06:37:00,
2013-04-23 02:38:00,49.6,23.7,30.32,East,93,2.2,4.6,36,0.00,CLR,,0.00,WeatherDisplay:10.37,2013-04-23 06:38:00,
2013-04-23 02:39:00,49.6,23.7,30.32,East,93,1.6,4.6,36,0.00,CLR,,0.00,WeatherDisplay:10.37,2013-04-23 06:39:00,
2013-04-23 02:41:00,49.7,23.8,30.32,East,79,0.3,4.6,36,0.00,CLR,,0.00,WeatherDisplay:10.37,2013-04-23 06:41:00,
2013-04-23 02:42:00,49.8,23.9,30.32,ESE,109,0.7,3.5,36,0.00,CLR,,0.00,WeatherDisplay:10.37,2013-04-23 06:42:00,
2013-04-23 02:44:00,49.5,24.9,30.32,ESE,119,5.3,8.3,38,0.00,CLR,,0.00,WeatherDisplay:10.37,2013-04-23 06:44:00,
2013-04-23 02:46:00,49.5,24.3,30.32,East,86,0.0,0.0,37,0.00,CLR,,0.00,WeatherDisplay:10.37,2013-04-23 06:46:00,
2013-04-23 02:47:00,49.8,24.5,30.32,East,86,0.0,0.0,37,0.00,CLR,,0.00,WeatherDisplay:10.37,2013-04-23 06:47:00,
2013-04-23 02:49:00,49.6,25.0,30.32,East,86,0.0,0.0,38,0.00,CLR,,0.00,WeatherDisplay:10.37,2013-04-23 06:49:00,
2013-04-23 02:51:00,49.7,24.5,30.31,East,79,0.7,3.5,37,0.00,CLR,,0.00,WeatherDisplay:10.37,2013-04-23 06:51:00,
2013-04-23 02:52:00,49.9,25.9,30.31,ESE,106,1.1,5.3,39,0.00,CLR,,0.00,WeatherDisplay:10.37,2013-04-23 06:52:00,
2013-04-23 02:54:00,49.3,23.4,30.31,ESE,119,2.9,9.2,36,0.00,CLR,,0.00,WeatherDisplay:10.37,2013-04-23 06:54:00,
2013-04-23 02:56:00,49.7,25.1,30.31,East,86,3.6,5.8,38,0.00,CLR,,0.00,WeatherDisplay:10.37,2013-04-23 06:56:00,
2013-04-23 02:57:00,49.5,24.9,30.31,ESE,102,2.4,4.6,38,0.00,CLR,,0.00,WeatherDisplay:10.37,2013-04-23 06:57:00,
2013-04-23 02:58:00,49.5,24.9,30.31,ESE,102,2.4,4.6,38,0.00,CLR,,0.00,WeatherDisplay:10.37,2013-04-23 06:58:00,
2013-04-23 03:00:00,49.3,24.1,30.31,ESE,112,2.8,6.9,37,0.00,CLR,,0.00,WeatherDisplay:10.37,2013-04-23 07:00:00,
2013-04-23 03:01:00,50.0,25.4,30.31,ESE,112,0.0,0.0,38,0.00,CLR,,0.00,WeatherDisplay:10.37,2013-04-23 07:01:00,
2013-04-23 03:03:00,49.8,25.2,30.31,ESE,117,0.8,3.5,38,0.00,CLR,,0.00,WeatherDisplay:10.37,2013-04-23 07:03:00,
2013-04-23 03:04:00,49.6,25.0,30.31,SE,130,4.2,5.8,38,0.00,CLR,,0.00,WeatherDisplay:10.37,2013-04-23 07:04:00,
2013-04-23 03:05:00,49.8,25.8,30.31,East,97,4.9,6.9,39,0.00,CLR,,0.00,WeatherDisplay:10.37,2013-04-23 07:05:00,
2013-04-23 03:07:00,49.4,24.8,30.31,East,97,0.0,2.3,38,0.00,CLR,,0.00,WeatherDisplay:10.37,2013-04-23 07:07:00,
2013-04-23 03:08:00,49.7,25.1,30.31,East,97,0.0,0.0,38,0.00,CLR,,0.00,WeatherDisplay:10.37,2013-04-23 07:08:00,
2013-04-23 03:09:00,49.9,25.9,30.31,ESE,107,1.7,2.7,39,0.00,CLR,,0.00,WeatherDisplay:10.37,2013-04-23 07:09:00,
2013-04-23 03:10:00,49.7,25.1,30.31,ESE,107,1.4,4.6,38,0.00,CLR,,0.00,WeatherDisplay:10.37,2013-04-23 07:10:00,
2013-04-23 03:12:00,49.4,24.2,30.31,ESE,103,0.8,3.5,37,0.00,CLR,,0.00,WeatherDisplay:10.37,2013-04-23 07:12:00,
2013-04-23 03:13:00,49.5,24.9,30.31,ESE,103,0.0,0.0,38,0.00,CLR,,0.00,WeatherDisplay:10.37,2013-04-23 07:13:00,
2013-04-23 03:14:00,49.6,25.0,30.31,ESE,103,0.0,0.0,38,0.00,CLR,,0.00,WeatherDisplay:10.37,2013-04-23 07:14:00,
2013-04-23 03:15:00,49.6,25.0,30.31,ESE,103,0.0,0.0,38,0.00,CLR,,0.00,WeatherDisplay:10.37,2013-04-23 07:15:00,
2013-04-23 03:17:00,49.5,25.5,30.31,ESE,114,4.9,5.8,39,0.00,CLR,,0.00,WeatherDisplay:10.37,2013-04-23 07:17:00,
2013-04-23 03:18:00,49.5,26.1,30.31,East,97,0.9,5.8,40,0.00,CLR,,0.00,WeatherDisplay:10.37,2013-04-23 07:18:00,
2013-04-23 03:19:00,49.5,26.1,30.31,East,97,0.0,3.5,40,0.00,CLR,,0.00,WeatherDisplay:10.37,2013-04-23 07:19:00,
2013-04-23 03:20:00,49.7,25.7,30.31,East,97,0.0,0.0,39,0.00,CLR,,0.00,WeatherDisplay:10.37,2013-04-23 07:20:00,
2013-04-23 03:21:00,49.5,24.9,30.31,East,97,0.0,0.0,38,0.00,CLR,,0.00,WeatherDisplay:10.37,2013-04-23 07:21:00,
2013-04-23 03:22:00,49.1,24.6,30.31,East,97,0.0,0.0,38,0.00,CLR,,0.00,WeatherDisplay:10.37,2013-04-23 07:22:00,
2013-04-23 03:23:00,48.9,24.4,30.31,ENE,71,1.4,4.6,38,0.00,CLR,,0.00,WeatherDisplay:10.37,2013-04-23 07:23:00,
2013-04-23 03:24:00,49.3,25.4,30.31,ENE,71,0.0,3.5,39,0.00,CLR,,0.00,WeatherDisplay:10.37,2013-04-23 07:24:00,
2013-04-23 03:25:00,49.1,25.8,30.31,East,93,0.0,2.1,40,0.00,CLR,,0.00,WeatherDisplay:10.37,2013-04-23 07:25:00,
2013-04-23 03:26:00,49.4,25.4,30.31,SE,124,1.1,3.0,39,0.00,CLR,,0.00,WeatherDisplay:10.37,2013-04-23 07:26:00,
2013-04-23 03:27:00,49.5,26.1,30.31,SE,127,0.0,3.5,40,0.00,CLR,,0.00,WeatherDisplay:10.37,2013-04-23 07:27:00,
2013-04-23 03:28:00,49.6,25.6,30.31,SE,127,0.0,0.0,39,0.00,CLR,,0.00,WeatherDisplay:10.37,2013-04-23 07:28:00,
2013-04-23 03:30:00,49.7,26.9,30.31,ESE,112,4.1,5.8,41,0.00,CLR,,0.00,WeatherDisplay:10.37,2013-04-23 07:30:00,
2013-04-23 03:31:00,49.6,26.8,30.31,SE,134,1.3,4.6,41,0.00,CLR,,0.00,WeatherDisplay:10.37,2013-04-23 07:31:00,
2013-04-23 03:32:00,49.6,26.8,30.31,SE,133,4.7,4.7,41,0.00,CLR,,0.00,WeatherDisplay:10.37,2013-04-23 07:32:00,
2013-04-23 03:34:00,49.9,26.5,30.31,ESE,107,1.7,4.6,40,0.00,CLR,,0.00,WeatherDisplay:10.37,2013-04-23 07:34:00,
2013-04-23 03:35:00,49.7,26.3,30.31,ESE,107,0.0,0.0,40,0.00,CLR,,0.00,WeatherDisplay:10.37,2013-04-23 07:35:00,
2013-04-23 03:36:00,49.9,26.5,30.31,ESE,107,0.0,0.0,40,0.00,CLR,,0.00,WeatherDisplay:10.37,2013-04-23 07:36:00,
2013-04-23 03:37:00,49.7,25.1,30.31,East,92,3.1,4.2,38,0.00,CLR,,0.00,WeatherDisplay:10.37,2013-04-23 07:37:00,
2013-04-23 03:39:00,49.4,26.1,30.31,ESE,112,3.2,5.8,40,0.00,CLR,,0.00,WeatherDisplay:10.37,2013-04-23 07:39:00,
2013-04-23 03:40:00,49.6,26.2,30.31,ESE,112,0.0,0.0,40,0.00,CLR,,0.00,WeatherDisplay:10.37,2013-04-23 07:40:00,
2013-04-23 03:41:00,49.6,26.2,30.31,ESE,112,0.0,0.0,40,0.00,CLR,,0.00,WeatherDisplay:10.37,2013-04-23 07:41:00,
2013-04-23 03:42:00,49.3,25.4,30.31,ENE,78,1.8,2.7,39,0.00,CLR,,0.00,WeatherDisplay:10.37,2013-04-23 07:42:00,
2013-04-23 03:44:00,49.4,25.4,30.31,ENE,78,0.0,2.3,39,0.00,CLR,,0.00,WeatherDisplay:10.37,2013-04-23 07:44:00,
2013-04-23 03:46:00,49.0,25.7,30.31,ENE,78,0.0,0.0,40,0.00,CLR,,0.00,WeatherDisplay:10.37,2013-04-23 07:46:00,
2013-04-23 03:47:00,48.9,25.6,30.31,ENE,78,0.0,0.0,40,0.00,CLR,,0.00,WeatherDisplay:10.37,2013-04-23 07:47:00,
2013-04-23 03:48:00,49.0,25.7,30.31,ENE,78,0.0,0.0,40,0.00,CLR,,0.00,WeatherDisplay:10.37,2013-04-23 07:48:00,
2013-04-23 03:49:00,48.9,25.6,30.30,ENE,78,0.0,0.0,40,0.00,CLR,,0.00,WeatherDisplay:10.37,2013-04-23 07:49:00,
2013-04-23 03:51:00,49.1,25.8,30.30,ENE,78,0.0,0.0,40,0.00,CLR,,0.00,WeatherDisplay:10.37,2013-04-23 07:51:00,
2013-04-23 03:52:00,48.7,25.4,30.30,ENE,78,0.0,0.0,40,0.00,CLR,,0.00,WeatherDisplay:10.37,2013-04-23 07:52:00,
2013-04-23 03:53:00,48.9,25.6,30.30,ENE,78,0.0,0.0,40,0.00,CLR,,0.00,WeatherDisplay:10.37,2013-04-23 07:53:00,
2013-04-23 03:54:00,48.6,25.3,30.30,ENE,78,0.0,0.0,40,0.00,CLR,,0.00,WeatherDisplay:10.37,2013-04-23 07:54:00,
2013-04-23 03:56:00,48.8,26.1,30.30,North,10,0.0,0.0,41,0.00,CLR,,0.00,WeatherDisplay:10.37,2013-04-23 07:56:00,
2013-04-23 03:57:00,48.7,26.6,30.30,North,10,0.0,0.0,42,0.00,CLR,,0.00,WeatherDisplay:10.37,2013-04-23 07:57:00,
2013-04-23 03:58:00,48.9,27.4,30.30,North,10,0.0,0.0,43,0.00,CLR,,0.00,WeatherDisplay:10.37,2013-04-23 07:58:00,
2013-04-23 03:59:00,49.1,27.5,30.30,North,10,0.0,0.0,43,0.00,CLR,,0.00,WeatherDisplay:10.37,2013-04-23 07:59:00,
2013-04-23 04:01:00,48.9,26.8,30.30,North,10,0.0,0.0,42,0.00,CLR,,0.00,WeatherDisplay:10.37,2013-04-23 08:01:00,
2013-04-23 04:02:00,49.1,26.4,30.30,North,10,0.0,0.0,41,0.00,CLR,,0.00,WeatherDisplay:10.37,2013-04-23 08:02:00,
2013-04-23 04:03:00,49.0,25.7,30.30,North,10,0.0,0.0,40,0.00,CLR,,0.00,WeatherDisplay:10.37,2013-04-23 08:03:00,
2013-04-23 04:04:00,48.8,26.1,30.30,North,10,0.0,0.0,41,0.00,CLR,,0.00,WeatherDisplay:10.37,2013-04-23 08:04:00,
2013-04-23 04:07:00,48.8,27.3,30.30,North,10,0.0,0.0,43,0.00,CLR,,0.00,WeatherDisplay:10.37,2013-04-23 08:07:00,
2013-04-23 04:09:00,49.3,26.6,30.30,North,10,0.0,0.0,41,0.00,CLR,,0.00,WeatherDisplay:10.37,2013-04-23 08:09:00,
2013-04-23 04:12:00,49.1,27.0,30.30,North,10,0.0,0.0,42,0.00,CLR,,0.00,WeatherDisplay:10.37,2013-04-23 08:12:00,
2013-04-23 04:13:00,49.1,27.5,30.30,North,10,0.0,0.0,43,0.00,CLR,,0.00,WeatherDisplay:10.37,2013-04-23 08:13:00,
2013-04-23 04:14:00,49.7,28.1,30.30,North,10,0.0,0.0,43,0.00,CLR,,0.00,WeatherDisplay:10.37,2013-04-23 08:14:00,
2013-04-23 04:15:00,49.7,28.1,30.30,North,10,0.0,0.0,43,0.00,CLR,,0.00,WeatherDisplay:10.37,2013-04-23 08:15:00,
2013-04-23 04:17:00,49.7,28.1,30.30,North,10,0.0,0.0,43,0.00,CLR,,0.00,WeatherDisplay:10.37,2013-04-23 08:17:00,
2013-04-23 04:18:00,49.9,28.3,30.30,North,10,0.0,0.0,43,0.00,CLR,,0.00,WeatherDisplay:10.37,2013-04-23 08:18:00,
2013-04-23 04:19:00,49.7,26.9,30.30,North,10,0.0,0.0,41,0.00,CLR,,0.00,WeatherDisplay:10.37,2013-04-23 08:19:00,
2013-04-23 04:20:00,49.8,27.6,30.30,North,10,0.0,0.0,42,0.00,CLR,,0.00,WeatherDisplay:10.37,2013-04-23 08:20:00,
2013-04-23 04:22:00,49.9,27.1,30.30,North,10,0.0,0.0,41,0.00,CLR,,0.00,WeatherDisplay:10.37,2013-04-23 08:22:00,
2013-04-23 04:23:00,49.7,25.7,30.30,North,10,0.0,0.0,39,0.00,CLR,,0.00,WeatherDisplay:10.37,2013-04-23 08:23:00,
2013-04-23 04:24:00,49.7,26.3,30.30,North,10,0.0,0.0,40,0.00,CLR,,0.00,WeatherDisplay:10.37,2013-04-23 08:24:00,
2013-04-23 04:26:00,49.9,25.9,30.30,ESE,116,1.7,5.9,39,0.00,CLR,,0.00,WeatherDisplay:10.37,2013-04-23 08:26:00,
2013-04-23 04:27:00,49.6,25.6,30.30,ENE,78,1.9,5.8,39,0.00,CLR,,0.00,WeatherDisplay:10.37,2013-04-23 08:27:00,
2013-04-23 04:28:00,48.9,25.6,30.30,ESE,104,1.6,4.6,40,0.00,CLR,,0.00,WeatherDisplay:10.37,2013-04-23 08:28:00,
2013-04-23 04:29:00,49.0,26.3,30.30,ESE,104,1.4,4.6,41,0.00,CLR,,0.00,WeatherDisplay:10.37,2013-04-23 08:29:00,
2013-04-23 04:31:00,49.0,25.7,30.30,ESE,104,0.0,0.0,40,0.00,CLR,,0.00,WeatherDisplay:10.37,2013-04-23 08:31:00,
2013-04-23 04:32:00,48.7,25.4,30.30,ESE,113,0.5,3.5,40,0.00,CLR,,0.00,WeatherDisplay:10.37,2013-04-23 08:32:00,
2013-04-23 04:33:00,48.7,26.0,30.30,SE,128,0.1,3.4,41,0.00,CLR,,0.00,WeatherDisplay:10.37,2013-04-23 08:33:00,
2013-04-23 04:34:00,48.9,26.2,30.30,ESE,107,1.0,4.6,41,0.00,CLR,,0.00,WeatherDisplay:10.37,2013-04-23 08:34:00,
2013-04-23 04:36:00,48.7,26.0,30.30,East,80,0.0,0.0,41,0.00,CLR,,0.00,WeatherDisplay:10.37,2013-04-23 08:36:00,
2013-04-23 04:37:00,48.6,25.9,30.30,East,80,0.0,0.0,41,0.00,CLR,,0.00,WeatherDisplay:10.37,2013-04-23 08:37:00,
2013-04-23 04:39:00,48.6,25.9,30.30,East,80,0.0,0.0,41,0.00,CLR,,0.00,WeatherDisplay:10.37,2013-04-23 08:39:00,
2013-04-23 04:42:00,48.6,26.5,30.30,East,80,0.0,0.0,42,0.00,CLR,,0.00,WeatherDisplay:10.37,2013-04-23 08:42:00,
2013-04-23 04:43:00,48.6,26.5,30.29,East,80,0.0,0.0,42,0.00,CLR,,0.00,WeatherDisplay:10.37,2013-04-23 08:43:00,
2013-04-23 04:44:00,48.6,27.1,30.30,East,80,0.0,0.0,43,0.00,CLR,,0.00,WeatherDisplay:10.37,2013-04-23 08:44:00,
2013-04-23 04:47:00,48.6,27.1,30.29,East,80,0.0,0.0,43,0.00,CLR,,0.00,WeatherDisplay:10.37,2013-04-23 08:47:00,
2013-04-23 04:48:00,48.6,27.1,30.29,East,80,0.0,0.0,43,0.00,CLR,,0.00,WeatherDisplay:10.37,2013-04-23 08:48:00,
2013-04-23 04:49:00,48.6,27.1,30.29,East,80,0.0,0.0,43,0.00,CLR,,0.00,WeatherDisplay:10.37,2013-04-23 08:49:00,
2013-04-23 04:52:00,48.6,26.5,30.29,ENE,58,2.3,3.5,42,0.00,CLR,,0.00,WeatherDisplay:10.37,2013-04-23 08:52:00,
2013-04-23 04:53:00,48.6,27.1,30.29,ENE,58,0.0,5.8,43,0.00,CLR,,0.00,WeatherDisplay:10.37,2013-04-23 08:53:00,
2013-04-23 04:54:00,48.6,27.1,30.29,ENE,58,0.0,0.0,43,0.00,CLR,,0.00,WeatherDisplay:10.37,2013-04-23 08:54:00,
2013-04-23 04:55:00,48.6,27.1,30.29,ENE,58,0.0,0.0,43,0.00,CLR,,0.00,WeatherDisplay:10.37,2013-04-23 08:55:00,
2013-04-23 04:57:00,48.6,27.1,30.29,ENE,58,0.0,0.0,43,0.00,CLR,,0.00,WeatherDisplay:10.37,2013-04-23 08:57:00,
2013-04-23 04:59:00,48.6,27.6,30.29,ENE,58,0.0,0.0,44,0.00,CLR,,0.00,WeatherDisplay:10.37,2013-04-23 08:59:00,
2013-04-23 05:00:00,48.6,27.6,30.29,ENE,58,0.0,0.0,44,0.00,CLR,,0.00,WeatherDisplay:10.37,2013-04-23 09:00:00,
2013-04-23 05:02:00,48.7,26.6,30.29,ENE,58,0.0,0.0,42,0.00,CLR,,0.00,WeatherDisplay:10.37,2013-04-23 09:02:00,
2013-04-23 05:04:00,48.6,26.5,30.29,ENE,58,0.0,0.0,42,0.00,CLR,,0.00,WeatherDisplay:10.37,2013-04-23 09:04:00,
2013-04-23 05:05:00,48.6,26.5,30.29,ENE,58,0.0,0.0,42,0.00,CLR,,0.00,WeatherDisplay:10.37,2013-04-23 09:05:00,
2013-04-23 05:07:00,48.5,26.4,30.29,ENE,58,0.0,0.0,42,0.00,CLR,,0.00,WeatherDisplay:10.37,2013-04-23 09:07:00,
2013-04-23 05:09:00,48.6,26.5,30.29,ENE,58,0.0,0.0,42,0.00,CLR,,0.00,WeatherDisplay:10.37,2013-04-23 09:09:00,
2013-04-23 05:10:00,48.6,26.5,30.29,ENE,58,0.0,0.0,42,0.00,CLR,,0.00,WeatherDisplay:10.37,2013-04-23 09:10:00,
2013-04-23 05:12:00,48.6,26.5,30.29,ENE,58,0.0,0.0,42,0.00,CLR,,0.00,WeatherDisplay:10.37,2013-04-23 09:12:00,
2013-04-23 05:14:00,48.6,27.1,30.29,ENE,58,0.0,0.0,43,0.00,CLR,,0.00,WeatherDisplay:10.37,2013-04-23 09:14:00,
2013-04-23 05:15:00,48.6,27.1,30.29,ENE,58,0.0,0.0,43,0.00,CLR,,0.00,WeatherDisplay:10.37,2013-04-23 09:15:00,
2013-04-23 05:17:00,48.6,27.1,30.29,ENE,58,0.0,0.0,43,0.00,CLR,,0.00,WeatherDisplay:10.37,2013-04-23 09:17:00,
2013-04-23 05:19:00,48.6,27.6,30.29,ENE,58,0.0,0.0,44,0.00,CLR,,0.00,WeatherDisplay:10.37,2013-04-23 09:19:00,
2013-04-23 05:20:00,48.6,28.2,30.29,ENE,58,0.0,0.0,45,0.00,CLR,,0.00,WeatherDisplay:10.37,2013-04-23 09:20:00,
2013-04-23 05:21:00,48.6,28.2,30.29,ENE,58,0.0,0.0,45,0.00,CLR,,0.00,WeatherDisplay:10.37,2013-04-23 09:21:00,
2013-04-23 05:22:00,48.7,27.7,30.29,ENE,58,0.0,0.0,44,0.00,CLR,,0.00,WeatherDisplay:10.37,2013-04-23 09:22:00,
2013-04-23 05:24:00,48.6,26.5,30.29,ENE,58,0.0,0.0,42,0.00,CLR,,0.00,WeatherDisplay:10.37,2013-04-23 09:24:00,
2013-04-23 05:25:00,48.6,26.5,30.29,ENE,58,0.0,0.0,42,0.00,CLR,,0.00,WeatherDisplay:10.37,2013-04-23 09:25:00,
2013-04-23 05:26:00,48.6,27.1,30.29,ENE,58,0.0,0.0,43,0.00,CLR,,0.00,WeatherDisplay:10.37,2013-04-23 09:26:00,
2013-04-23 05:27:00,48.6,27.1,30.29,ENE,58,0.0,0.0,43,0.00,CLR,,0.00,WeatherDisplay:10.37,2013-04-23 09:27:00,
2013-04-23 05:29:00,48.6,26.5,30.29,ENE,58,0.0,0.0,42,0.00,CLR,,0.00,WeatherDisplay:10.37,2013-04-23 09:29:00,
2013-04-23 05:30:00,48.6,26.5,30.29,ENE,58,0.0,0.0,42,0.00,CLR,,0.00,WeatherDisplay:10.37,2013-04-23 09:30:00,
2013-04-23 05:31:00,48.6,26.5,30.29,ENE,58,0.0,0.0,42,0.00,CLR,,0.00,WeatherDisplay:10.37,2013-04-23 09:31:00,
2013-04-23 05:33:00,48.6,26.5,30.29,ENE,58,0.0,0.0,42,0.00,CLR,,0.00,WeatherDisplay:10.37,2013-04-23 09:33:00,
2013-04-23 05:34:00,48.6,26.5,30.29,ENE,58,0.0,0.0,42,0.00,CLR,,0.00,WeatherDisplay:10.37,2013-04-23 09:34:00,
2013-04-23 05:35:00,48.6,27.1,30.29,ENE,58,0.0,0.0,43,0.00,CLR,,0.00,WeatherDisplay:10.37,2013-04-23 09:35:00,
2013-04-23 05:36:00,48.5,27.0,30.29,ENE,58,0.0,0.0,43,0.00,CLR,,0.00,WeatherDisplay:10.37,2013-04-23 09:36:00,
2013-04-23 05:38:00,48.6,27.6,30.28,ENE,58,0.0,0.0,44,0.00,CLR,,0.00,WeatherDisplay:10.37,2013-04-23 09:38:00,
2013-04-23 05:39:00,48.6,28.2,30.28,ENE,58,0.0,0.0,45,0.00,CLR,,0.00,WeatherDisplay:10.37,2013-04-23 09:39:00,
2013-04-23 05:40:00,48.6,27.6,30.28,ENE,58,0.0,0.0,44,0.00,CLR,,0.00,WeatherDisplay:10.37,2013-04-23 09:40:00,
2013-04-23 05:41:00,48.7,27.7,30.28,ENE,58,0.0,0.0,44,0.00,CLR,,0.00,WeatherDisplay:10.37,2013-04-23 09:41:00,
2013-04-23 05:42:00,48.6,27.6,30.28,ENE,58,0.0,0.0,44,0.00,CLR,,0.00,WeatherDisplay:10.37,2013-04-23 09:42:00,
2013-04-23 05:43:00,48.6,27.1,30.28,ENE,58,0.0,0.0,43,0.00,CLR,,0.00,WeatherDisplay:10.37,2013-04-23 09:43:00,
2013-04-23 05:45:00,48.6,27.1,30.28,ENE,58,0.0,0.0,43,0.00,CLR,,0.00,WeatherDisplay:10.37,2013-04-23 09:45:00,
2013-04-23 05:46:00,48.6,27.1,30.28,ENE,58,0.0,0.0,43,0.00,CLR,,0.00,WeatherDisplay:10.37,2013-04-23 09:46:00,
2013-04-23 05:47:00,48.6,27.6,30.28,ENE,58,0.0,0.0,44,0.00,CLR,,0.00,WeatherDisplay:10.37,2013-04-23 09:47:00,
2013-04-23 05:49:00,48.6,27.1,30.28,ENE,58,0.0,0.0,43,0.00,CLR,,0.00,WeatherDisplay:10.37,2013-04-23 09:49:00,
2013-04-23 05:50:00,48.6,27.1,30.28,ENE,58,0.0,0.0,43,0.00,CLR,,0.00,WeatherDisplay:10.37,2013-04-23 09:50:00,
2013-04-23 05:51:00,48.6,27.1,30.28,ENE,58,0.0,0.0,43,0.00,CLR,,0.00,WeatherDisplay:10.37,2013-04-23 09:51:00,
2013-04-23 05:52:00,48.6,27.1,30.28,ENE,58,0.0,0.0,43,0.00,CLR,,0.00,WeatherDisplay:10.37,2013-04-23 09:52:00,
2013-04-23 05:54:00,48.6,27.1,30.28,ENE,58,0.0,0.0,43,0.00,CLR,,0.00,WeatherDisplay:10.37,2013-04-23 09:54:00,
2013-04-23 05:55:00,48.4,27.5,30.28,ENE,58,0.0,0.0,44,0.00,CLR,,0.00,WeatherDisplay:10.37,2013-04-23 09:55:00,
2013-04-23 05:56:00,48.6,28.7,30.28,ENE,58,0.0,0.0,46,0.00,CLR,,0.00,WeatherDisplay:10.37,2013-04-23 09:56:00,
2013-04-23 05:57:00,48.5,28.6,30.28,ENE,58,0.0,0.0,46,0.00,CLR,,0.00,WeatherDisplay:10.37,2013-04-23 09:57:00,
2013-04-23 05:59:00,48.6,29.3,30.28,ENE,58,0.0,0.0,47,0.00,CLR,,0.00,WeatherDisplay:10.37,2013-04-23 09:59:00,
2013-04-23 06:00:00,48.6,29.3,30.28,ENE,58,0.0,0.0,47,0.00,CLR,,0.00,WeatherDisplay:10.37,2013-04-23 10:00:00,
2013-04-23 06:01:00,48.7,29.4,30.28,ENE,58,0.0,0.0,47,0.00,CLR,,0.00,WeatherDisplay:10.37,2013-04-23 10:01:00,
2013-04-23 06:02:00,48.7,29.4,30.28,NNE,13,0.0,0.0,47,0.00,CLR,,0.00,WeatherDisplay:10.37,2013-04-23 10:02:00,
2013-04-23 06:04:00,48.8,29.4,30.28,NNE,13,0.0,0.0,47,0.00,CLR,,0.00,WeatherDisplay:10.37,2013-04-23 10:04:00,
2013-04-23 06:05:00,49.4,30.0,30.28,NNE,13,0.0,0.0,47,0.00,CLR,,0.00,WeatherDisplay:10.37,2013-04-23 10:05:00,
2013-04-23 06:06:00,48.9,29.5,30.28,NNE,13,0.0,0.0,47,0.00,CLR,,0.00,WeatherDisplay:10.37,2013-04-23 10:06:00,
2013-04-23 06:07:00,49.6,29.6,30.28,NNE,13,0.0,0.0,46,0.00,CLR,,0.00,WeatherDisplay:10.37,2013-04-23 10:07:00,
2013-04-23 06:09:00,49.6,29.6,30.28,NNE,13,0.0,0.0,46,0.00,CLR,,0.00,WeatherDisplay:10.37,2013-04-23 10:09:00,
2013-04-23 06:10:00,49.0,27.5,30.28,NNE,13,0.0,0.0,43,0.00,CLR,,0.00,WeatherDisplay:10.37,2013-04-23 10:10:00,
2013-04-23 06:11:00,49.1,27.0,30.28,NNE,13,0.0,0.0,42,0.00,CLR,,0.00,WeatherDisplay:10.37,2013-04-23 10:11:00,
2013-04-23 06:12:00,49.0,26.9,30.28,NNE,13,0.0,0.0,42,0.00,CLR,,0.00,WeatherDisplay:10.37,2013-04-23 10:12:00,
2013-04-23 06:13:00,48.9,26.2,30.28,NNE,13,0.0,0.0,41,0.00,CLR,,0.00,WeatherDisplay:10.37,2013-04-23 10:13:00,
2013-04-23 06:14:00,48.6,27.1,30.28,NNE,13,0.0,0.0,43,0.00,CLR,,0.00,WeatherDisplay:10.37,2013-04-23 10:14:00,
2013-04-23 06:15:00,48.7,27.2,30.28,NNE,13,0.0,0.0,43,0.00,CLR,,0.00,WeatherDisplay:10.37,2013-04-23 10:15:00,
2013-04-23 06:16:00,48.6,27.1,30.28,NNE,13,0.0,0.0,43,0.00,CLR,,0.00,WeatherDisplay:10.37,2013-04-23 10:16:00,
2013-04-23 06:17:00,48.5,27.0,30.28,NNE,13,0.0,0.0,43,0.00,CLR,,0.00,WeatherDisplay:10.37,2013-04-23 10:17:00,
2013-04-23 06:19:00,48.6,27.6,30.28,NNE,13,0.0,0.0,44,0.00,CLR,,0.00,WeatherDisplay:10.37,2013-04-23 10:19:00,
2013-04-23 06:20:00,48.5,27.6,30.28,NNE,13,0.0,0.0,44,0.00,CLR,,0.00,WeatherDisplay:10.37,2013-04-23 10:20:00,
2013-04-23 06:21:00,48.6,28.2,30.28,NNE,13,0.0,0.0,45,0.00,CLR,,0.00,WeatherDisplay:10.37,2013-04-23 10:21:00,
2013-04-23 06:22:00,48.6,28.7,30.28,NNE,13,0.0,0.0,46,0.00,CLR,,0.00,WeatherDisplay:10.37,2013-04-23 10:22:00,
2013-04-23 06:24:00,48.5,28.1,30.28,NNE,13,0.0,0.0,45,0.00,CLR,,0.00,WeatherDisplay:10.37,2013-04-23 10:24:00,
2013-04-23 06:25:00,48.6,28.7,30.28,NNE,13,0.0,0.0,46,0.00,CLR,,0.00,WeatherDisplay:10.37,2013-04-23 10:25:00,
2013-04-23 06:26:00,48.6,28.2,30.28,NNE,13,0.0,0.0,45,0.00,CLR,,0.00,WeatherDisplay:10.37,2013-04-23 10:26:00,
2013-04-23 06:27:00,48.6,27.6,30.28,NNE,13,0.0,0.0,44,0.00,CLR,,0.00,WeatherDisplay:10.37,2013-04-23 10:27:00,
2013-04-23 06:29:00,48.6,27.6,30.28,NNE,13,0.0,0.0,44,0.00,CLR,,0.00,WeatherDisplay:10.37,2013-04-23 10:29:00,
2013-04-23 06:30:00,48.5,28.1,30.28,NNE,13,0.0,0.0,45,0.00,CLR,,0.00,WeatherDisplay:10.37,2013-04-23 10:30:00,
2013-04-23 06:31:00,48.5,28.1,30.28,NNE,13,0.0,0.0,45,0.00,CLR,,0.00,WeatherDisplay:10.37,2013-04-23 10:31:00,
2013-04-23 06:32:00,48.6,28.2,30.28,NNE,13,0.0,0.0,45,0.00,CLR,,0.00,WeatherDisplay:10.37,2013-04-23 10:32:00,
2013-04-23 06:34:00,48.6,28.2,30.28,NNE,13,0.0,0.0,45,0.00,CLR,,0.00,WeatherDisplay:10.37,2013-04-23 10:34:00,
2013-04-23 06:35:00,48.5,28.1,30.28,NNE,13,0.0,0.0,45,0.00,CLR,,0.00,WeatherDisplay:10.37,2013-04-23 10:35:00,
2013-04-23 06:36:00,48.6,27.6,30.28,NNE,13,0.0,0.0,44,0.00,CLR,,0.00,WeatherDisplay:10.37,2013-04-23 10:36:00,
2013-04-23 06:37:00,48.4,27.5,30.28,NNE,13,0.0,0.0,44,0.00,CLR,,0.00,WeatherDisplay:10.37,2013-04-23 10:37:00,
2013-04-23 06:39:00,48.5,28.6,30.28,NNE,13,0.0,0.0,46,0.00,CLR,,0.00,WeatherDisplay:10.37,2013-04-23 10:39:00,
2013-04-23 06:41:00,48.6,28.2,30.28,NNE,13,0.0,0.0,45,0.00,CLR,,0.00,WeatherDisplay:10.37,2013-04-23 10:41:00,
2013-04-23 06:42:00,48.5,28.6,30.29,NNE,13,0.0,0.0,46,0.00,CLR,,0.00,WeatherDisplay:10.37,2013-04-23 10:42:00,
2013-04-23 06:45:00,48.6,28.2,30.28,NNE,13,0.0,0.0,45,0.00,CLR,,0.00,WeatherDisplay:10.37,2013-04-23 10:45:00,
2013-04-23 06:46:00,48.6,27.1,30.28,NNE,13,0.0,0.0,43,0.00,CLR,,0.00,WeatherDisplay:10.37,2013-04-23 10:46:00,
2013-04-23 06:47:00,48.6,27.1,30.28,NNE,13,0.0,0.0,43,0.00,CLR,,0.00,WeatherDisplay:10.37,2013-04-23 10:47:00,
2013-04-23 06:48:00,48.6,27.1,30.28,NNE,13,0.0,0.0,43,0.00,CLR,,0.00,WeatherDisplay:10.37,2013-04-23 10:48:00,
2013-04-23 06:50:00,48.6,27.1,30.29,NNE,13,0.0,0.0,43,0.00,CLR,,0.00,WeatherDisplay:10.37,2013-04-23 10:50:00,
2013-04-23 06:51:00,48.5,27.6,30.29,NNE,13,0.0,0.0,44,0.00,CLR,,0.00,WeatherDisplay:10.37,2013-04-23 10:51:00,
2013-04-23 06:52:00,48.5,27.6,30.29,NNE,13,0.0,0.0,44,0.00,CLR,,0.00,WeatherDisplay:10.37,2013-04-23 10:52:00,
2013-04-23 06:53:00,48.5,28.1,30.28,NNE,13,0.0,0.0,45,0.00,CLR,,0.00,WeatherDisplay:10.37,2013-04-23 10:53:00,
2013-04-23 06:55:00,48.5,28.1,30.29,NNE,13,0.0,0.0,45,0.00,CLR,,0.00,WeatherDisplay:10.37,2013-04-23 10:55:00,
2013-04-23 06:56:00,48.5,28.1,30.29,NNE,13,0.0,0.0,45,0.00,CLR,,0.00,WeatherDisplay:10.37,2013-04-23 10:56:00,
2013-04-23 06:57:00,48.4,28.0,30.29,NNE,13,0.0,0.0,45,0.00,CLR,,0.00,WeatherDisplay:10.37,2013-04-23 10:57:00,
2013-04-23 06:58:00,48.5,28.6,30.29,NNE,13,0.0,0.0,46,0.00,CLR,,0.00,WeatherDisplay:10.37,2013-04-23 10:58:00,
2013-04-23 07:00:00,48.5,29.2,30.29,NNE,13,0.0,0.0,47,0.00,CLR,,0.00,WeatherDisplay:10.37,2013-04-23 11:00:00,
2013-04-23 07:01:00,48.6,29.3,30.29,NNE,13,0.0,0.0,47,0.00,CLR,,0.00,WeatherDisplay:10.37,2013-04-23 11:01:00,
2013-04-23 07:02:00,48.6,29.3,30.29,NNE,13,0.0,0.0,47,0.00,CLR,,0.00,WeatherDisplay:10.37,2013-04-23 11:02:00,
2013-04-23 07:03:00,48.6,29.3,30.29,NNE,13,0.0,0.0,47,0.00,CLR,,0.00,WeatherDisplay:10.37,2013-04-23 11:03:00,
2013-04-23 07:05:00,48.6,27.6,30.29,NNE,13,0.0,0.0,44,0.00,CLR,,0.00,WeatherDisplay:10.37,2013-04-23 11:05:00,
2013-04-23 07:06:00,48.6,27.6,30.29,NNE,13,0.0,0.0,44,0.00,CLR,,0.00,WeatherDisplay:10.37,2013-04-23 11:06:00,
2013-04-23 07:07:00,48.6,28.2,30.29,NNE,13,0.0,0.0,45,0.00,CLR,,0.00,WeatherDisplay:10.37,2013-04-23 11:07:00,
2013-04-23 07:08:00,48.7,27.7,30.29,NNE,13,0.0,0.0,44,0.00,CLR,,0.00,WeatherDisplay:10.37,2013-04-23 11:08:00,
2013-04-23 07:10:00,48.6,27.1,30.29,NNE,13,0.0,0.0,43,0.00,CLR,,0.00,WeatherDisplay:10.37,2013-04-23 11:10:00,
2013-04-23 07:11:00,48.6,27.1,30.28,NNE,13,0.0,0.0,43,0.00,CLR,,0.00,WeatherDisplay:10.37,2013-04-23 11:11:00,
2013-04-23 07:12:00,48.6,27.1,30.28,NNE,13,0.0,0.0,43,0.00,CLR,,0.00,WeatherDisplay:10.37,2013-04-23 11:12:00,
2013-04-23 07:13:00,48.5,27.6,30.28,NNE,13,0.0,0.0,44,0.00,CLR,,0.00,WeatherDisplay:10.37,2013-04-23 11:13:00,
2013-04-23 07:16:00,48.6,27.6,30.28,NNE,13,0.0,0.0,44,0.00,CLR,,0.00,WeatherDisplay:10.37,2013-04-23 11:16:00,
2013-04-23 07:17:00,48.5,27.0,30.28,NNE,13,0.0,0.0,43,0.00,CLR,,0.00,WeatherDisplay:10.37,2013-04-23 11:17:00,
2013-04-23 07:19:00,48.5,27.6,30.28,NNE,13,0.0,0.0,44,0.00,CLR,,0.00,WeatherDisplay:10.37,2013-04-23 11:19:00,
2013-04-23 07:21:00,48.6,28.2,30.29,NNE,13,0.0,0.0,45,0.00,CLR,,0.00,WeatherDisplay:10.37,2013-04-23 11:21:00,
2013-04-23 07:22:00,48.5,27.0,30.29,NNE,13,0.0,0.0,43,0.00,CLR,,0.00,WeatherDisplay:10.37,2013-04-23 11:22:00,
2013-04-23 07:23:00,48.6,27.6,30.29,NNE,13,0.0,0.0,44,0.00,CLR,,0.00,WeatherDisplay:10.37,2013-04-23 11:23:00,
2013-04-23 07:24:00,48.6,28.2,30.28,NNE,13,0.0,0.0,45,0.00,CLR,,0.00,WeatherDisplay:10.37,2013-04-23 11:24:00,
2013-04-23 07:26:00,48.6,27.1,30.28,NNE,13,0.0,0.0,43,0.00,CLR,,0.00,WeatherDisplay:10.37,2013-04-23 11:26:00,
2013-04-23 07:28:00,48.6,27.6,30.28,NNE,13,0.0,0.0,44,0.00,CLR,,0.00,WeatherDisplay:10.37,2013-04-23 11:28:00,
2013-04-23 07:29:00,48.6,28.7,30.28,NNE,13,0.0,0.0,46,0.00,CLR,,0.00,WeatherDisplay:10.37,2013-04-23 11:29:00,
2013-04-23 07:31:00,48.9,29.5,30.28,NNE,13,0.0,0.0,47,0.00,CLR,,0.00,WeatherDisplay:10.37,2013-04-23 11:31:00,
2013-04-23 07:33:00,49.2,28.7,30.28,NNE,13,0.0,0.0,45,0.00,CLR,,0.00,WeatherDisplay:10.37,2013-04-23 11:33:00,
2013-04-23 07:34:00,49.3,28.8,30.28,NNE,13,0.0,0.0,45,0.00,CLR,,0.00,WeatherDisplay:10.37,2013-04-23 11:34:00,
2013-04-23 07:37:00,49.8,28.7,30.28,NNE,13,0.0,0.0,44,0.00,CLR,,0.00,WeatherDisplay:10.37,2013-04-23 11:37:00,
2013-04-23 07:38:00,49.9,27.1,30.28,NNE,13,0.0,0.0,41,0.00,CLR,,0.00,WeatherDisplay:10.37,2013-04-23 11:38:00,
2013-04-23 07:39:00,49.7,25.7,30.28,NNE,13,0.0,0.0,39,0.00,CLR,,0.00,WeatherDisplay:10.37,2013-04-23 11:39:00,
2013-04-23 07:42:00,50.0,26.6,30.28,NNE,13,0.0,0.0,40,0.00,CLR,,0.00,WeatherDisplay:10.37,2013-04-23 11:42:00,
2013-04-23 07:43:00,50.1,26.1,30.28,NNE,13,0.0,0.0,39,0.00,CLR,,0.00,WeatherDisplay:10.37,2013-04-23 11:43:00,
2013-04-23 07:44:00,50.0,26.0,30.28,NNE,13,0.0,0.0,39,0.00,CLR,,0.00,WeatherDisplay:10.37,2013-04-23 11:44:00,
2013-04-23 07:47:00,50.0,26.0,30.28,NNE,13,0.0,0.0,39,0.00,CLR,,0.00,WeatherDisplay:10.37,2013-04-23 11:47:00,
2013-04-23 07:48:00,50.1,26.1,30.28,NNE,13,0.0,0.0,39,0.00,CLR,,0.00,WeatherDisplay:10.37,2013-04-23 11:48:00,
2013-04-23 07:49:00,50.0,26.0,30.28,NNE,13,0.0,0.0,39,0.00,CLR,,0.00,WeatherDisplay:10.37,2013-04-23 11:49:00,
2013-04-23 07:52:00,49.9,25.3,30.28,NNE,13,0.0,0.0,38,0.00,CLR,,0.00,WeatherDisplay:10.37,2013-04-23 11:52:00,
2013-04-23 07:53:00,50.1,24.8,30.28,NNE,13,0.0,0.0,37,0.00,CLR,,0.00,WeatherDisplay:10.37,2013-04-23 11:53:00,
2013-04-23 07:54:00,50.2,25.5,30.28,NNE,13,0.0,0.0,38,0.00,CLR,,0.00,WeatherDisplay:10.37,2013-04-23 11:54:00,
2013-04-23 07:58:00,50.2,26.8,30.28,NNE,13,0.0,0.0,40,0.00,CLR,,0.00,WeatherDisplay:10.37,2013-04-23 11:58:00,
2013-04-23 07:59:00,50.3,26.9,30.28,NNE,13,0.0,0.0,40,0.00,CLR,,0.00,WeatherDisplay:10.37,2013-04-23 11:59:00,
2013-04-23 08:00:00,50.3,26.9,30.28,NNE,13,0.0,0.0,40,0.00,CLR,,0.00,WeatherDisplay:10.37,2013-04-23 12:00:00,
2013-04-23 08:03:00,50.7,25.3,30.28,NNE,13,0.0,0.0,37,0.00,CLR,,0.00,WeatherDisplay:10.37,2013-04-23 12:03:00,
2013-04-23 08:05:00,50.4,24.4,30.28,NNE,13,0.0,0.0,36,0.00,CLR,,0.00,WeatherDisplay:10.37,2013-04-23 12:05:00,
2013-04-23 08:08:00,50.8,22.0,30.28,NNE,13,0.0,0.0,32,0.00,CLR,,0.00,WeatherDisplay:10.37,2013-04-23 12:08:00,
2013-04-23 08:09:00,50.9,21.3,30.28,NNE,13,0.0,0.0,31,0.00,CLR,,0.00,WeatherDisplay:10.37,2013-04-23 12:09:00,
2013-04-23 08:10:00,50.7,21.9,30.28,NNE,13,0.0,0.0,32,0.00,CLR,,0.00,WeatherDisplay:10.37,2013-04-23 12:10:00,
2013-04-23 08:13:00,50.7,23.3,30.28,NNE,13,0.0,0.0,34,0.00,CLR,,0.00,WeatherDisplay:10.37,2013-04-23 12:13:00,
2013-04-23 08:14:00,50.7,22.6,30.28,NNE,13,0.0,0.0,33,0.00,CLR,,0.00,WeatherDisplay:10.37,2013-04-23 12:14:00,
2013-04-23 08:15:00,50.7,22.6,30.28,NNE,13,0.0,0.0,33,0.00,CLR,,0.00,WeatherDisplay:10.37,2013-04-23 12:15:00,
2013-04-23 08:18:00,50.8,22.7,30.28,NNE,13,0.0,0.0,33,0.00,CLR,,0.00,WeatherDisplay:10.37,2013-04-23 12:18:00,
2013-04-23 08:19:00,50.7,22.6,30.28,NNE,13,0.0,0.0,33,0.00,CLR,,0.00,WeatherDisplay:10.37,2013-04-23 12:19:00,
2013-04-23 08:20:00,50.7,22.6,30.28,NNE,13,0.0,0.0,33,0.00,CLR,,0.00,WeatherDisplay:10.37,2013-04-23 12:20:00,
2013-04-23 08:24:00,50.4,21.6,30.28,NNE,13,0.0,0.0,32,0.00,CLR,,0.00,WeatherDisplay:10.37,2013-04-23 12:24:00,
2013-04-23 08:25:00,50.4,23.1,30.28,NNE,13,0.0,0.0,34,0.00,CLR,,0.00,WeatherDisplay:10.37,2013-04-23 12:25:00,
2013-04-23 08:29:00,50.2,22.9,30.28,NNE,13,0.0,0.0,34,0.00,CLR,,0.00,WeatherDisplay:10.37,2013-04-23 12:29:00,
2013-04-23 08:30:00,50.6,23.2,30.28,NNE,13,0.0,0.0,34,0.00,CLR,,0.00,WeatherDisplay:10.37,2013-04-23 12:30:00,
2013-04-23 08:34:00,50.9,24.2,30.27,NNE,13,0.0,0.0,35,0.00,CLR,,0.00,WeatherDisplay:10.37,2013-04-23 12:34:00,
2013-04-23 08:35:00,51.0,24.3,30.27,NNE,13,0.0,0.0,35,0.00,CLR,,0.00,WeatherDisplay:10.37,2013-04-23 12:35:00,
2013-04-23 08:39:00,51.0,24.3,30.28,NNE,13,0.0,0.0,35,0.00,CLR,,0.00,WeatherDisplay:10.37,2013-04-23 12:39:00,
2013-04-23 08:40:00,50.5,23.8,30.28,NNE,13,0.0,0.0,35,0.00,CLR,,0.00,WeatherDisplay:10.37,2013-04-23 12:40:00,
2013-04-23 08:41:00,50.5,23.1,30.28,NNE,13,0.0,0.0,34,0.00,CLR,,0.00,WeatherDisplay:10.37,2013-04-23 12:41:00,
2013-04-23 08:44:00,50.9,20.5,30.27,NNE,13,0.0,0.0,30,0.00,CLR,,0.00,WeatherDisplay:10.37,2013-04-23 12:44:00,
2013-04-23 08:45:00,50.9,21.3,30.28,NNE,13,0.0,0.0,31,0.00,CLR,,0.00,WeatherDisplay:10.37,2013-04-23 12:45:00,
2013-04-23 08:46:00,51.3,21.6,30.28,NNE,13,0.0,0.0,31,0.00,CLR,,0.00,WeatherDisplay:10.37,2013-04-23 12:46:00,
2013-04-23 08:49:00,51.0,22.1,30.28,NNE,13,0.0,0.0,32,0.00,CLR,,0.00,WeatherDisplay:10.37,2013-04-23 12:49:00,
2013-04-23 08:50:00,51.0,22.1,30.28,NNE,13,0.0,0.0,32,0.00,CLR,,0.00,WeatherDisplay:10.37,2013-04-23 12:50:00,
2013-04-23 08:51:00,51.5,21.8,30.28,NNE,13,0.0,0.0,31,0.00,CLR,,0.00,WeatherDisplay:10.37,2013-04-23 12:51:00,
2013-04-23 08:54:00,50.9,21.3,30.28,NNE,13,0.0,0.0,31,0.00,CLR,,0.00,WeatherDisplay:10.37,2013-04-23 12:54:00,
2013-04-23 08:55:00,51.4,21.0,30.28,ENE,58,0.4,0.0,30,0.00,CLR,,0.00,WeatherDisplay:10.37,2013-04-23 12:55:00,
2013-04-23 08:56:00,50.9,20.5,30.28,ENE,58,0.0,2.3,30,0.00,CLR,,0.00,WeatherDisplay:10.37,2013-04-23 12:56:00,
2013-04-23 08:59:00,50.9,19.7,30.28,ENE,58,0.0,0.0,29,0.00,CLR,,0.00,WeatherDisplay:10.37,2013-04-23 12:59:00,
2013-04-23 09:00:00,51.6,21.1,30.28,ENE,58,0.0,0.0,30,0.00,CLR,,0.00,WeatherDisplay:10.37,2013-04-23 13:00:00,
2013-04-23 09:01:00,51.2,20.8,30.28,ENE,58,0.0,0.0,30,0.00,CLR,,0.00,WeatherDisplay:10.37,2013-04-23 13:01:00,
2013-04-23 09:04:00,51.7,21.2,30.28,ENE,58,0.0,0.0,30,0.00,CLR,,0.00,WeatherDisplay:10.37,2013-04-23 13:04:00,
2013-04-23 09:05:00,51.2,21.6,30.28,ENE,58,0.0,0.0,31,0.00,CLR,,0.00,WeatherDisplay:10.37,2013-04-23 13:05:00,
2013-04-23 09:06:00,51.1,21.5,30.28,ENE,58,0.0,0.0,31,0.00,CLR,,0.00,WeatherDisplay:10.37,2013-04-23 13:06:00,
2013-04-23 09:07:00,51.9,22.2,30.28,ENE,58,0.0,0.0,31,0.00,CLR,,0.00,WeatherDisplay:10.37,2013-04-23 13:07:00,
2013-04-23 09:10:00,50.8,21.2,30.28,SSW,212,0.0,0.0,31,0.00,CLR,,0.00,WeatherDisplay:10.37,2013-04-23 13:10:00,
2013-04-23 09:11:00,51.0,21.4,30.28,SSW,212,0.0,0.0,31,0.00,CLR,,0.00,WeatherDisplay:10.37,2013-04-23 13:11:00,
2013-04-23 09:12:00,51.9,22.9,30.28,SSW,212,0.0,0.0,32,0.00,CLR,,0.00,WeatherDisplay:10.37,2013-04-23 13:12:00,
2013-04-23 09:15:00,51.0,20.6,30.28,SSW,212,0.0,0.0,30,0.00,CLR,,0.00,WeatherDisplay:10.37,2013-04-23 13:15:00,
2013-04-23 09:16:00,50.9,20.5,30.28,SSW,212,0.0,0.0,30,0.00,CLR,,0.00,WeatherDisplay:10.37,2013-04-23 13:16:00,
2013-04-23 09:17:00,52.0,21.5,30.28,SSW,212,0.0,0.0,30,0.00,CLR,,0.00,WeatherDisplay:10.37,2013-04-23 13:17:00,
2013-04-23 09:20:00,51.7,19.6,30.28,SSW,212,0.0,0.0,28,0.00,CLR,,0.00,WeatherDisplay:10.37,2013-04-23 13:20:00,
2013-04-23 09:21:00,51.7,19.6,30.28,SSW,212,0.0,0.0,28,0.00,CLR,,0.00,WeatherDisplay:10.37,2013-04-23 13:21:00,
2013-04-23 09:22:00,51.3,16.6,30.28,SSW,212,0.0,0.0,25,0.00,CLR,,0.00,WeatherDisplay:10.37,2013-04-23 13:22:00,
2013-04-23 09:23:00,51.6,17.8,30.28,SSW,212,0.0,0.0,26,0.00,CLR,,0.00,WeatherDisplay:10.37,2013-04-23 13:23:00,
2013-04-23 09:26:00,51.7,21.2,30.28,South,184,1.3,3.5,30,0.00,CLR,,0.00,WeatherDisplay:10.37,2013-04-23 13:26:00,
2013-04-23 09:27:00,51.7,21.2,30.28,SSE,157,0.1,0.0,30,0.00,CLR,,0.00,WeatherDisplay:10.37,2013-04-23 13:27:00,
2013-04-23 09:28:00,51.4,19.3,30.28,SSE,157,0.1,1.1,28,0.00,CLR,,0.00,WeatherDisplay:10.37,2013-04-23 13:28:00,
2013-04-23 09:31:00,50.9,21.3,30.28,SSE,157,0.0,0.0,31,0.00,CLR,,0.00,WeatherDisplay:10.37,2013-04-23 13:31:00,
2013-04-23 09:32:00,51.0,21.4,30.28,SSW,213,1.8,3.5,31,0.00,CLR,,0.00,WeatherDisplay:10.37,2013-04-23 13:32:00,
2013-04-23 09:33:00,50.8,21.2,30.28,SSW,213,0.4,3.5,31,0.00,CLR,,0.00,WeatherDisplay:10.37,2013-04-23 13:33:00,
2013-04-23 09:36:00,50.5,20.9,30.28,WSW,250,2.4,4.6,31,0.00,CLR,,0.00,WeatherDisplay:10.37,2013-04-23 13:36:00,
2013-04-23 09:37:00,50.8,22.7,30.28,SSW,206,0.7,4.6,33,0.00,CLR,,0.00,WeatherDisplay:10.37,2013-04-23 13:37:00,
2013-04-23 09:39:00,51.0,23.6,30.28,SE,136,0.8,4.6,34,0.00,CLR,,0.00,WeatherDisplay:10.37,2013-04-23 13:39:00,
2013-04-23 09:41:00,50.9,22.1,30.28,SE,136,0.0,0.0,32,0.00,CLR,,0.00,WeatherDisplay:10.37,2013-04-23 13:41:00,
2013-04-23 09:43:00,51.6,21.1,30.28,SE,136,0.0,0.0,30,0.00,CLR,,0.00,WeatherDisplay:10.37,2013-04-23 13:43:00,
2013-04-23 09:44:00,52.1,20.8,30.28,SE,136,0.0,0.0,29,0.00,CLR,,0.00,WeatherDisplay:10.37,2013-04-23 13:44:00,
2013-04-23 09:46:00,51.3,19.3,30.28,NW,313,2.9,5.2,28,0.00,CLR,,0.00,WeatherDisplay:10.37,2013-04-23 13:46:00,
2013-04-23 09:48:00,51.1,22.2,30.28,NW,320,2.9,5.8,32,0.00,CLR,,0.00,WeatherDisplay:10.37,2013-04-23 13:48:00,
2013-04-23 09:49:00,50.8,22.0,30.28,West,280,1.9,4.6,32,0.00,CLR,,0.00,WeatherDisplay:10.37,2013-04-23 13:49:00,
2013-04-23 09:51:00,51.3,22.4,30.28,West,280,0.0,0.0,32,0.00,CLR,,0.00,WeatherDisplay:10.37,2013-04-23 13:51:00,
2013-04-23 09:52:00,51.1,22.2,30.28,West,280,0.0,0.0,32,0.00,CLR,,0.00,WeatherDisplay:10.37,2013-04-23 13:52:00,
2013-04-23 09:53:00,50.8,21.2,30.28,West,280,0.0,0.0,31,0.00,CLR,,0.00,WeatherDisplay:10.37,2013-04-23 13:53:00,
2013-04-23 09:55:00,51.8,21.3,30.28,West,280,0.0,0.0,30,0.00,CLR,,0.00,WeatherDisplay:10.37,2013-04-23 13:55:00,
2013-04-23 09:56:00,51.9,20.6,30.28,West,280,0.0,0.0,29,0.00,CLR,,0.00,WeatherDisplay:10.37,2013-04-23 13:56:00,
2013-04-23 09:57:00,51.7,20.4,30.28,West,280,0.0,0.0,29,0.00,CLR,,0.00,WeatherDisplay:10.37,2013-04-23 13:57:00,
2013-04-23 09:58:00,53.6,18.6,30.28,West,280,0.0,0.0,25,0.00,CLR,,0.00,WeatherDisplay:10.37,2013-04-23 13:58:00,
2013-04-23 10:00:00,53.0,18.1,30.28,West,280,0.0,0.0,25,0.00,CLR,,0.00,WeatherDisplay:10.37,2013-04-23 14:00:00,
2013-04-23 10:02:00,53.9,16.9,30.28,West,280,0.0,0.0,23,0.00,CLR,,0.00,WeatherDisplay:10.37,2013-04-23 14:02:00,
2013-04-23 10:03:00,52.7,16.9,30.28,ESE,110,1.7,4.6,24,0.00,CLR,,0.00,WeatherDisplay:10.37,2013-04-23 14:03:00,
2013-04-23 10:04:00,53.4,16.5,30.28,ESE,110,0.0,0.0,23,0.00,CLR,,0.00,WeatherDisplay:10.37,2013-04-23 14:04:00,
2013-04-23 10:06:00,53.2,17.3,30.27,ESE,110,0.0,0.0,24,0.00,CLR,,0.00,WeatherDisplay:10.37,2013-04-23 14:06:00,
2013-04-23 10:07:00,54.4,18.3,30.27,ESE,110,0.0,0.0,24,0.00,CLR,,0.00,WeatherDisplay:10.37,2013-04-23 14:07:00,
2013-04-23 10:08:00,54.6,18.5,30.27,ESE,110,0.0,0.0,24,0.00,CLR,,0.00,WeatherDisplay:10.37,2013-04-23 14:08:00,
2013-04-23 10:09:00,55.1,18.9,30.27,ESE,110,0.0,0.0,24,0.00,CLR,,0.00,WeatherDisplay:10.37,2013-04-23 14:09:00,
2013-04-23 10:11:00,55.9,16.5,30.27,ESE,110,0.0,0.0,21,0.00,CLR,,0.00,WeatherDisplay:10.37,2013-04-23 14:11:00,
2013-04-23 10:12:00,55.3,14.8,30.27,ESE,110,0.0,0.0,20,0.00,CLR,,0.00,WeatherDisplay:10.37,2013-04-23 14:12:00,
2013-04-23 10:13:00,55.0,17.8,30.27,ESE,110,0.0,0.0,23,0.00,CLR,,0.00,WeatherDisplay:10.37,2013-04-23 14:13:00,
2013-04-23 10:15:00,53.6,20.4,30.28,ESE,110,0.0,0.0,27,0.00,CLR,,0.00,WeatherDisplay:10.37,2013-04-23 14:15:00,
2013-04-23 10:16:00,53.9,21.5,30.28,ESE,110,0.0,0.0,28,0.00,CLR,,0.00,WeatherDisplay:10.37,2013-04-23 14:16:00,
2013-04-23 10:17:00,53.3,21.8,30.28,ESE,110,0.0,0.0,29,0.00,CLR,,0.00,WeatherDisplay:10.37,2013-04-23 14:17:00,
2013-04-23 10:18:00,52.0,20.7,30.28,ESE,110,0.0,0.0,29,0.00,CLR,,0.00,WeatherDisplay:10.37,2013-04-23 14:18:00,
2013-04-23 10:20:00,52.0,20.7,30.28,ESE,110,0.0,0.0,29,0.00,CLR,,0.00,WeatherDisplay:10.37,2013-04-23 14:20:00,
2013-04-23 10:21:00,52.4,21.0,30.28,ESE,110,0.0,0.0,29,0.00,CLR,,0.00,WeatherDisplay:10.37,2013-04-23 14:21:00,
2013-04-23 10:23:00,51.9,19.8,30.28,SSE,157,1.4,4.7,28,0.00,CLR,,0.00,WeatherDisplay:10.37,2013-04-23 14:23:00,
2013-04-23 10:25:00,53.7,19.6,30.28,SE,143,2.4,4.6,26,0.00,CLR,,0.00,WeatherDisplay:10.37,2013-04-23 14:25:00,
2013-04-23 10:26:00,54.2,18.1,30.29,East,90,4.6,5.8,24,0.00,CLR,,0.00,WeatherDisplay:10.37,2013-04-23 14:26:00,
2013-04-23 10:28:00,54.7,17.6,30.28,SE,143,1.3,6.2,23,0.00,CLR,,0.00,WeatherDisplay:10.37,2013-04-23 14:28:00,
2013-04-23 10:30:00,54.8,14.4,30.29,East,95,1.7,4.6,20,0.00,CLR,,0.00,WeatherDisplay:10.37,2013-04-23 14:30:00,
2013-04-23 10:31:00,55.0,16.8,30.28,East,95,0.0,0.0,22,0.00,CLR,,0.00,WeatherDisplay:10.37,2013-04-23 14:31:00,
2013-04-23 10:33:00,55.1,16.9,30.28,East,95,0.0,0.0,22,0.00,CLR,,0.00,WeatherDisplay:10.37,2013-04-23 14:33:00,
2013-04-23 10:34:00,55.1,16.9,30.28,East,95,0.0,0.0,22,0.00,CLR,,0.00,WeatherDisplay:10.37,2013-04-23 14:34:00,
2013-04-23 10:35:00,54.9,16.7,30.28,East,95,0.0,0.0,22,0.00,CLR,,0.00,WeatherDisplay:10.37,2013-04-23 14:35:00,
2013-04-23 10:36:00,55.6,16.2,30.28,East,95,0.0,0.0,21,0.00,CLR,,0.00,WeatherDisplay:10.37,2013-04-23 14:36:00,
2013-04-23 10:38:00,55.5,15.0,30.28,East,95,0.0,0.0,20,0.00,CLR,,0.00,WeatherDisplay:10.37,2013-04-23 14:38:00,
2013-04-23 10:39:00,57.5,16.7,30.28,East,95,0.0,0.0,20,0.00,CLR,,0.00,WeatherDisplay:10.37,2013-04-23 14:39:00,
2013-04-23 10:41:00,55.8,18.5,30.28,East,95,0.0,0.0,23,0.00,CLR,,0.00,WeatherDisplay:10.37,2013-04-23 14:41:00,
2013-04-23 10:42:00,55.5,17.2,30.28,East,95,0.0,0.0,22,0.00,CLR,,0.00,WeatherDisplay:10.37,2013-04-23 14:42:00,
2013-04-23 10:43:00,53.9,20.6,30.28,East,95,0.0,0.0,27,0.00,CLR,,0.00,WeatherDisplay:10.37,2013-04-23 14:43:00,
2013-04-23 10:44:00,54.2,20.0,30.28,East,95,0.0,0.0,26,0.00,CLR,,0.00,WeatherDisplay:10.37,2013-04-23 14:44:00,
2013-04-23 10:46:00,53.3,19.2,30.28,East,95,0.0,0.0,26,0.00,CLR,,0.00,WeatherDisplay:10.37,2013-04-23 14:46:00,
2013-04-23 10:48:00,52.6,19.5,30.28,East,95,0.0,0.0,27,0.00,CLR,,0.00,WeatherDisplay:10.37,2013-04-23 14:48:00,
2013-04-23 10:49:00,52.7,18.7,30.28,East,95,0.0,0.0,26,0.00,CLR,,0.00,WeatherDisplay:10.37,2013-04-23 14:49:00,
2013-04-23 10:51:00,53.0,19.0,30.29,East,95,0.0,0.0,26,0.00,CLR,,0.00,WeatherDisplay:10.37,2013-04-23 14:51:00,
2013-04-23 10:52:00,52.3,18.4,30.29,East,95,0.0,0.0,26,0.00,CLR,,0.00,WeatherDisplay:10.37,2013-04-23 14:52:00,
2013-04-23 10:53:00,51.8,18.0,30.29,WSW,247,2.3,5.8,26,0.00,CLR,,0.00,WeatherDisplay:10.37,2013-04-23 14:53:00,
2013-04-23 10:54:00,53.1,19.1,30.29,WSW,247,1.7,5.8,26,0.00,CLR,,0.00,WeatherDisplay:10.37,2013-04-23 14:54:00,
2013-04-23 10:56:00,52.7,19.6,30.29,South,184,3.7,4.6,27,0.00,CLR,,0.00,WeatherDisplay:10.37,2013-04-23 14:56:00,
2013-04-23 10:57:00,53.0,19.9,30.29,SSW,205,3.6,5.3,27,0.00,CLR,,0.00,WeatherDisplay:10.37,2013-04-23 14:57:00,
2013-04-23 10:58:00,53.9,17.9,30.29,South,171,0.0,0.0,24,0.00,CLR,,0.00,WeatherDisplay:10.37,2013-04-23 14:58:00,
2013-04-23 10:59:00,54.2,19.1,30.29,West,260,0.4,3.4,25,0.00,CLR,,0.00,WeatherDisplay:10.37,2013-04-23 14:59:00,
2013-04-23 11:00:00,53.9,15.9,30.29,WSW,257,0.8,3.5,22,0.00,CLR,,0.00,WeatherDisplay:10.37,2013-04-23 15:00:00,
2013-04-23 11:01:00,54.2,17.1,30.29,WSW,257,0.0,0.0,23,0.00,CLR,,0.00,WeatherDisplay:10.37,2013-04-23 15:01:00,
2013-04-23 11:02:00,53.6,17.6,30.29,WSW,257,0.0,0.0,24,0.00,CLR,,0.00,WeatherDisplay:10.37,2013-04-23 15:02:00,
2013-04-23 11:04:00,54.9,16.7,30.29,WSW,257,0.4,2.3,22,0.00,CLR,,0.00,WeatherDisplay:10.37,2013-04-23 15:04:00,
2013-04-23 11:05:00,54.5,17.4,30.28,WSW,257,0.0,2.3,23,0.00,CLR,,0.00,WeatherDisplay:10.37,2013-04-23 15:05:00,
2013-04-23 11:07:00,55.1,15.8,30.28,NNW,340,2.9,4.6,21,0.00,CLR,,0.00,WeatherDisplay:10.37,2013-04-23 15:07:00,
2013-04-23 11:09:00,54.9,17.7,30.28,WSW,241,3.3,7.3,23,0.00,CLR,,0.00,WeatherDisplay:10.37,2013-04-23 15:09:00,
2013-04-23 11:10:00,55.2,18.0,30.28,SW,236,5.1,8.1,23,0.00,CLR,,0.00,WeatherDisplay:10.37,2013-04-23 15:10:00,
2013-04-23 11:12:00,54.7,17.6,30.27,SW,236,0.0,0.0,23,0.00,CLR,,0.00,WeatherDisplay:10.37,2013-04-23 15:12:00,
2013-04-23 11:14:00,54.1,18.1,30.27,SW,236,0.0,0.0,24,0.00,CLR,,0.00,WeatherDisplay:10.37,2013-04-23 15:14:00,
2013-04-23 11:15:00,54.0,18.9,30.27,SW,236,0.0,0.0,25,0.00,CLR,,0.00,WeatherDisplay:10.37,2013-04-23 15:15:00,
2013-04-23 11:17:00,53.5,19.4,30.28,SW,236,0.0,0.0,26,0.00,CLR,,0.00,WeatherDisplay:10.37,2013-04-23 15:17:00,
2013-04-23 11:18:00,52.0,19.0,30.28,SW,236,0.0,0.0,27,0.00,CLR,,0.00,WeatherDisplay:10.37,2013-04-23 15:18:00,
2013-04-23 11:19:00,52.2,18.3,30.28,SW,236,0.0,0.0,26,0.00,CLR,,0.00,WeatherDisplay:10.37,2013-04-23 15:19:00,
2013-04-23 11:20:00,53.1,20.0,30.28,SW,236,0.0,0.0,27,0.00,CLR,,0.00,WeatherDisplay:10.37,2013-04-23 15:20:00,
2013-04-23 11:22:00,52.1,19.1,30.28,SW,236,0.0,0.0,27,0.00,CLR,,0.00,WeatherDisplay:10.37,2013-04-23 15:22:00,
2013-04-23 11:23:00,53.4,20.2,30.28,SW,236,0.0,0.0,27,0.00,CLR,,0.00,WeatherDisplay:10.37,2013-04-23 15:23:00,
2013-04-23 11:24:00,53.5,16.6,30.28,SW,236,0.0,0.0,23,0.00,CLR,,0.00,WeatherDisplay:10.37,2013-04-23 15:24:00,
2013-04-23 11:25:00,54.8,19.6,30.28,SW,236,0.0,0.0,25,0.00,CLR,,0.00,WeatherDisplay:10.37,2013-04-23 15:25:00,
2013-04-23 11:26:00,55.3,18.1,30.28,SW,236,0.4,0.0,23,0.00,CLR,,0.00,WeatherDisplay:10.37,2013-04-23 15:26:00,
2013-04-23 11:27:00,55.5,17.2,30.28,NW,320,4.9,5.8,22,0.00,CLR,,0.00,WeatherDisplay:10.37,2013-04-23 15:27:00,
2013-04-23 11:28:00,55.1,16.9,30.28,West,264,4.4,6.9,22,0.00,CLR,,0.00,WeatherDisplay:10.37,2013-04-23 15:28:00,
2013-04-23 11:29:00,55.5,18.2,30.28,WSW,258,4.7,8.1,23,0.00,CLR,,0.00,WeatherDisplay:10.37,2013-04-23 15:29:00,
2013-04-23 11:30:00,55.0,16.8,30.28,West,267,4.3,8.1,22,0.00,CLR,,0.00,WeatherDisplay:10.37,2013-04-23 15:30:00,
2013-04-23 11:31:00,55.9,17.6,30.28,WSW,257,3.5,5.8,22,0.00,CLR,,0.00,WeatherDisplay:10.37,2013-04-23 15:31:00,
2013-04-23 11:32:00,55.8,18.5,30.27,WSW,257,0.0,4.6,23,0.00,CLR,,0.00,WeatherDisplay:10.37,2013-04-23 15:32:00,
2013-04-23 11:33:00,55.8,17.5,30.27,WSW,257,0.0,0.0,22,0.00,CLR,,0.00,WeatherDisplay:10.37,2013-04-23 15:33:00,
2013-04-23 11:34:00,56.2,17.8,30.27,North,6,2.7,4.6,22,0.00,CLR,,0.00,WeatherDisplay:10.37,2013-04-23 15:34:00,
2013-04-23 11:36:00,57.8,19.1,30.28,North,6,0.0,3.5,22,0.00,CLR,,0.00,WeatherDisplay:10.37,2013-04-23 15:36:00,
2013-04-23 11:37:00,57.5,18.9,30.28,NW,315,2.3,3.5,22,0.00,CLR,,0.00,WeatherDisplay:10.37,2013-04-23 15:37:00,
2013-04-23 11:38:00,57.4,18.8,30.28,WNW,291,0.0,0.0,22,0.00,CLR,,0.00,WeatherDisplay:10.37,2013-04-23 15:38:00,
2013-04-23 11:40:00,59.3,23.4,30.28,WNW,291,0.0,0.0,25,0.00,CLR,,0.00,WeatherDisplay:10.37,2013-04-23 15:40:00,
2013-04-23 11:41:00,59.8,20.8,30.28,WNW,291,0.0,0.0,22,0.00,CLR,,0.00,WeatherDisplay:10.37,2013-04-23 15:41:00,
2013-04-23 11:42:00,60.8,19.4,30.28,SSE,147,1.8,3.0,20,0.00,CLR,,0.00,WeatherDisplay:10.37,2013-04-23 15:42:00,
2013-04-23 11:43:00,61.2,14.6,30.28,WSW,253,2.9,5.8,16,0.00,CLR,,0.00,WeatherDisplay:10.37,2013-04-23 15:43:00,
2013-04-23 11:45:00,60.9,18.3,30.28,WSW,251,5.2,8.1,19,0.00,CLR,,0.00,WeatherDisplay:10.37,2013-04-23 15:45:00,
2013-04-23 11:46:00,60.0,17.6,30.29,WNW,294,7.1,8.1,19,0.00,CLR,,0.00,WeatherDisplay:10.37,2013-04-23 15:46:00,
2013-04-23 11:47:00,59.4,19.4,30.29,WNW,284,4.1,9.2,21,0.00,CLR,,0.00,WeatherDisplay:10.37,2013-04-23 15:47:00,
2013-04-23 11:48:00,57.4,18.8,30.29,NNW,335,5.6,6.9,22,0.00,CLR,,0.00,WeatherDisplay:10.37,2013-04-23 15:48:00,
2013-04-23 11:50:00,56.7,22.2,30.29,North,360,3.0,5.8,26,0.00,CLR,,0.00,WeatherDisplay:10.37,2013-04-23 15:50:00,
2013-04-23 11:51:00,55.7,19.4,30.29,NNW,342,1.2,3.5,24,0.00,CLR,,0.00,WeatherDisplay:10.37,2013-04-23 15:51:00,
2013-04-23 11:52:00,57.3,20.8,30.29,NNW,342,1.2,3.5,24,0.00,CLR,,0.00,WeatherDisplay:10.37,2013-04-23 15:52:00,
2013-04-23 11:53:00,58.8,22.0,30.28,NNW,342,0.0,0.0,24,0.00,CLR,,0.00,WeatherDisplay:10.37,2013-04-23 15:53:00,
2013-04-23 11:55:00,60.9,18.3,30.28,SSW,205,2.8,4.6,19,0.00,CLR,,0.00,WeatherDisplay:10.37,2013-04-23 15:55:00,
2013-04-23 11:57:00,61.6,18.9,30.28,SSW,205,0.0,3.5,19,0.00,CLR,,0.00,WeatherDisplay:10.37,2013-04-23 15:57:00,
2013-04-23 11:58:00,62.8,15.9,30.28,SSW,205,0.0,0.0,16,0.00,CLR,,0.00,WeatherDisplay:10.37,2013-04-23 15:58:00,
2013-04-23 12:01:00,63.6,15.0,30.27,SSW,205,0.0,0.0,15,0.00,CLR,,0.00,WeatherDisplay:10.37,2013-04-23 16:01:00,
2013-04-23 12:02:00,64.0,15.4,30.27,SSW,205,0.0,0.0,15,0.00,CLR,,0.00,WeatherDisplay:10.37,2013-04-23 16:02:00,
2013-04-23 12:04:00,65.0,12.9,30.27,SSW,205,0.0,0.0,13,0.00,CLR,,0.00,WeatherDisplay:10.37,2013-04-23 16:04:00,
2013-04-23 12:06:00,65.2,9.3,30.27,NNE,13,3.6,4.6,11,0.00,CLR,,0.00,WeatherDisplay:10.37,2013-04-23 16:06:00,
2013-04-23 12:07:00,65.3,11.3,30.27,NNE,28,2.3,6.9,12,0.00,CLR,,0.00,WeatherDisplay:10.37,2013-04-23 16:07:00,
2013-04-23 12:08:00,64.9,12.8,30.27,SE,138,3.7,5.1,13,0.00,CLR,,0.00,WeatherDisplay:10.37,2013-04-23 16:08:00,
2013-04-23 12:10:00,65.3,14.8,30.26,SE,141,4.5,5.1,14,0.00,CLR,,0.00,WeatherDisplay:10.37,2013-04-23 16:10:00,
2013-04-23 12:11:00,64.2,10.5,30.26,East,89,4.9,8.1,12,0.00,CLR,,0.00,WeatherDisplay:10.37,2013-04-23 16:11:00,
2013-04-23 12:12:00,64.2,13.9,30.26,SSE,147,5.6,6.0,14,0.00,CLR,,0.00,WeatherDisplay:10.37,2013-04-23 16:12:00,
2013-04-23 12:13:00,64.9,14.5,30.26,ESE,112,3.2,6.9,14,0.00,CLR,,0.00,WeatherDisplay:10.37,2013-04-23 16:13:00,
2013-04-23 12:15:00,65.3,13.1,30.26,ESE,112,0.0,0.0,13,0.00,CLR,,0.00,WeatherDisplay:10.37,2013-04-23 16:15:00,
2013-04-23 12:17:00,64.8,16.0,30.25,ESE,112,0.0,0.0,15,0.00,CLR,,0.00,WeatherDisplay:10.37,2013-04-23 16:17:00,
2013-04-23 12:18:00,63.8,16.7,30.25,North,360,0.6,3.5,16,0.00,CLR,,0.00,WeatherDisplay:10.37,2013-04-23 16:18:00,
2013-04-23 12:20:00,63.3,19.0,30.25,North,0,0.3,3.5,18,0.00,CLR,,0.00,WeatherDisplay:10.37,2013-04-23 16:20:00,
2013-04-23 12:22:00,63.7,19.3,30.25,North,0,0.0,0.0,18,0.00,CLR,,0.00,WeatherDisplay:10.37,2013-04-23 16:22:00,
2013-04-23 12:23:00,64.0,18.3,30.25,North,0,0.0,0.0,17,0.00,CLR,,0.00,WeatherDisplay:10.37,2013-04-23 16:23:00,
2013-04-23 12:25:00,64.7,14.3,30.25,ENE,72,1.2,3.5,14,0.00,CLR,,0.00,WeatherDisplay:10.37,2013-04-23 16:25:00,
2013-04-23 12:27:00,65.1,14.7,30.25,SE,145,6.0,6.9,14,0.00,CLR,,0.00,WeatherDisplay:10.37,2013-04-23 16:27:00,
2013-04-23 12:28:00,65.6,15.1,30.25,SE,124,6.3,8.1,14,0.00,CLR,,0.00,WeatherDisplay:10.37,2013-04-23 16:28:00,
2013-04-23 12:31:00,65.6,13.4,30.25,East,82,2.3,5.8,13,0.00,CLR,,0.00,WeatherDisplay:10.37,2013-04-23 16:31:00,
2013-04-23 12:32:00,65.3,13.1,30.25,SSE,152,4.1,8.1,13,0.00,CLR,,0.00,WeatherDisplay:10.37,2013-04-23 16:32:00,
2013-04-23 12:33:00,65.7,13.4,30.25,SSE,152,2.0,8.1,13,0.00,CLR,,0.00,WeatherDisplay:10.37,2013-04-23 16:33:00,
2013-04-23 12:34:00,65.6,11.5,30.25,SSE,152,0.0,3.5,12,0.00,CLR,,0.00,WeatherDisplay:10.37,2013-04-23 16:34:00,
2013-04-23 12:37:00,65.1,16.2,30.25,SW,220,1.1,3.1,15,0.00,CLR,,0.00,WeatherDisplay:10.37,2013-04-23 16:37:00,
2013-04-23 12:38:00,64.3,15.6,30.24,SW,220,0.7,4.6,15,0.00,CLR,,0.00,WeatherDisplay:10.37,2013-04-23 16:38:00,
2013-04-23 12:39:00,64.4,17.2,30.24,SW,220,0.0,3.5,16,0.00,CLR,,0.00,WeatherDisplay:10.37,2013-04-23 16:39:00,
2013-04-23 12:42:00,63.6,20.5,30.24,SW,220,0.5,0.0,19,0.00,CLR,,0.00,WeatherDisplay:10.37,2013-04-23 16:42:00,
2013-04-23 12:43:00,63.8,23.1,30.24,SW,220,0.0,2.3,21,0.00,CLR,,0.00,WeatherDisplay:10.37,2013-04-23 16:43:00,
2013-04-23 12:44:00,64.0,24.4,30.24,SW,220,0.0,0.0,22,0.00,CLR,,0.00,WeatherDisplay:10.37,2013-04-23 16:44:00,
2013-04-23 12:47:00,64.8,17.5,30.24,ESE,116,3.2,6.8,16,0.00,CLR,,0.00,WeatherDisplay:10.37,2013-04-23 16:47:00,
2013-04-23 12:48:00,65.3,14.8,30.24,East,99,3.8,9.6,14,0.00,CLR,,0.00,WeatherDisplay:10.37,2013-04-23 16:48:00,
2013-04-23 12:49:00,63.4,13.3,30.24,East,83,6.0,9.2,14,0.00,CLR,,0.00,WeatherDisplay:10.37,2013-04-23 16:49:00,
2013-04-23 12:52:00,64.0,16.8,30.23,ESE,112,4.4,8.1,16,0.00,CLR,,0.00,WeatherDisplay:10.37,2013-04-23 16:52:00,
2013-04-23 12:53:00,63.5,16.4,30.23,East,95,4.0,8.1,16,0.00,CLR,,0.00,WeatherDisplay:10.37,2013-04-23 16:53:00,
2013-04-23 12:54:00,64.2,17.0,30.23,ESE,106,0.4,5.0,16,0.00,CLR,,0.00,WeatherDisplay:10.37,2013-04-23 16:54:00,
2013-04-23 12:58:00,65.3,14.8,30.23,ESE,104,0.0,5.8,14,0.00,CLR,,0.00,WeatherDisplay:10.37,2013-04-23 16:58:00,
2013-04-23 12:59:00,65.4,13.2,30.23,ESE,104,0.0,0.0,13,0.00,CLR,,0.00,WeatherDisplay:10.37,2013-04-23 16:59:00,
2013-04-23 13:03:00,68.2,9.5,30.23,South,171,5.8,9.2,10,0.00,CLR,,0.00,WeatherDisplay:10.37,2013-04-23 17:03:00,
2013-04-23 13:04:00,68.4,7.3,30.23,South,172,5.7,9.2,9,0.00,CLR,,0.00,WeatherDisplay:10.37,2013-04-23 17:04:00,
2013-04-23 13:08:00,68.3,7.2,30.23,NE,54,0.0,4.6,9,0.00,CLR,,0.00,WeatherDisplay:10.37,2013-04-23 17:08:00,
2013-04-23 13:09:00,67.9,6.9,30.22,NE,51,3.2,4.6,9,0.00,CLR,,0.00,WeatherDisplay:10.37,2013-04-23 17:09:00,
2013-04-23 13:10:00,67.9,6.9,30.22,NE,51,0.5,6.9,9,0.00,CLR,,0.00,WeatherDisplay:10.37,2013-04-23 17:10:00,
2013-04-23 13:13:00,66.9,12.6,30.22,NE,48,4.4,6.9,12,0.00,CLR,,0.00,WeatherDisplay:10.37,2013-04-23 17:13:00,
2013-04-23 13:14:00,66.5,14.1,30.22,NE,48,2.3,6.9,13,0.00,CLR,,0.00,WeatherDisplay:10.37,2013-04-23 17:14:00,
2013-04-23 13:15:00,66.3,12.1,30.22,NE,48,0.0,4.6,12,0.00,CLR,,0.00,WeatherDisplay:10.37,2013-04-23 17:15:00,
2013-04-23 13:18:00,67.0,12.6,30.22,ESE,123,4.1,6.9,12,0.00,CLR,,0.00,WeatherDisplay:10.37,2013-04-23 17:18:00,
2013-04-23 13:20:00,67.2,10.8,30.22,SSW,202,3.1,4.6,11,0.00,CLR,,0.00,WeatherDisplay:10.37,2013-04-23 17:20:00,
2013-04-23 13:24:00,67.3,8.8,30.21,East,85,2.5,6.9,10,0.00,CLR,,0.00,WeatherDisplay:10.37,2013-04-23 17:24:00,
2013-04-23 13:25:00,67.8,11.3,30.21,ESE,119,0.8,4.8,11,0.00,CLR,,0.00,WeatherDisplay:10.37,2013-04-23 17:25:00,
2013-04-23 13:29:00,68.3,9.5,30.21,SE,140,0.0,5.8,10,0.00,CLR,,0.00,WeatherDisplay:10.37,2013-04-23 17:29:00,
2013-04-23 13:30:00,68.7,9.9,30.21,SE,140,0.0,0.0,10,0.00,CLR,,0.00,WeatherDisplay:10.37,2013-04-23 17:30:00,
2013-04-23 13:31:00,68.6,9.8,30.21,SE,140,0.0,0.0,10,0.00,CLR,,0.00,WeatherDisplay:10.37,2013-04-23 17:31:00,
2013-04-23 13:34:00,68.6,7.4,30.21,NE,54,5.4,5.4,9,0.00,CLR,,0.00,WeatherDisplay:10.37,2013-04-23 17:34:00,
2013-04-23 13:35:00,68.9,7.7,30.21,ESE,117,1.2,4.6,9,0.00,CLR,,0.00,WeatherDisplay:10.37,2013-04-23 17:35:00,
2013-04-23 13:39:00,69.4,5.4,30.21,ESE,123,4.6,8.6,8,0.00,CLR,,0.00,WeatherDisplay:10.37,2013-04-23 17:39:00,
2013-04-23 13:40:00,69.8,5.7,30.21,SSE,155,6.2,9.2,8,0.00,CLR,,0.00,WeatherDisplay:10.37,2013-04-23 17:40:00,
2013-04-23 13:41:00,69.8,2.8,30.21,SSE,168,3.3,8.1,7,0.00,CLR,,0.00,WeatherDisplay:10.37,2013-04-23 17:41:00,
2013-04-23 13:44:00,69.6,2.7,30.21,SSW,213,0.0,0.0,7,0.00,CLR,,0.00,WeatherDisplay:10.37,2013-04-23 17:44:00,
2013-04-23 13:45:00,69.6,2.7,30.20,SSW,213,0.0,0.0,7,0.00,CLR,,0.00,WeatherDisplay:10.37,2013-04-23 17:45:00,
2013-04-23 13:46:00,70.2,3.1,30.21,SSW,213,0.0,0.0,7,0.00,CLR,,0.00,WeatherDisplay:10.37,2013-04-23 17:46:00,
2013-04-23 13:49:00,70.6,6.3,30.20,SE,133,2.7,4.3,8,0.00,CLR,,0.00,WeatherDisplay:10.37,2013-04-23 17:49:00,
2013-04-23 13:50:00,70.6,6.3,30.20,SE,133,3.1,4.4,8,0.00,CLR,,0.00,WeatherDisplay:10.37,2013-04-23 17:50:00,
2013-04-23 13:51:00,71.1,3.8,30.20,SSE,162,3.1,4.6,7,0.00,CLR,,0.00,WeatherDisplay:10.37,2013-04-23 17:51:00,
2013-04-23 13:54:00,70.6,3.4,30.20,ESE,107,2.7,4.6,7,0.00,CLR,,0.00,WeatherDisplay:10.37,2013-04-23 17:54:00,
2013-04-23 13:55:00,70.2,3.1,30.20,SE,136,4.0,4.6,7,0.00,CLR,,0.00,WeatherDisplay:10.37,2013-04-23 17:55:00,
2013-04-23 13:56:00,70.5,3.3,30.20,SE,134,0.0,3.5,7,0.00,CLR,,0.00,WeatherDisplay:10.37,2013-04-23 17:56:00,
2013-04-23 14:00:00,70.6,6.3,30.19,WSW,254,0.0,3.5,8,0.00,CLR,,0.00,WeatherDisplay:10.37,2013-04-23 18:00:00,
2013-04-23 14:01:00,70.8,3.6,30.19,South,171,4.6,6.9,7,0.00,CLR,,0.00,WeatherDisplay:10.37,2013-04-23 18:01:00,
2013-04-23 14:02:00,70.5,3.3,30.19,East,86,2.2,6.9,7,0.00,CLR,,0.00,WeatherDisplay:10.37,2013-04-23 18:02:00,
2013-04-23 14:05:00,68.9,5.1,30.19,North,360,4.2,8.1,8,0.00,CLR,,0.00,WeatherDisplay:10.37,2013-04-23 18:05:00,
2013-04-23 14:07:00,68.1,13.5,30.19,East,92,4.2,9.3,12,0.00,CLR,,0.00,WeatherDisplay:10.37,2013-04-23 18:07:00,
2013-04-23 14:10:00,65.3,11.3,30.19,ENE,72,7.7,10.4,12,0.00,CLR,,0.00,WeatherDisplay:10.37,2013-04-23 18:10:00,
2013-04-23 14:12:00,66.5,14.1,30.18,East,83,0.9,4.6,13,0.00,CLR,,0.00,WeatherDisplay:10.37,2013-04-23 18:12:00,
2013-04-23 14:15:00,67.6,11.1,30.18,ESE,116,7.2,11.5,11,0.00,CLR,,0.00,WeatherDisplay:10.37,2013-04-23 18:15:00,
2013-04-23 14:16:00,67.9,11.4,30.18,SE,144,4.0,11.5,11,0.00,CLR,,0.00,WeatherDisplay:10.37,2013-04-23 18:16:00,
2013-04-23 14:17:00,68.5,9.7,30.18,ESE,119,2.3,3.0,10,0.00,CLR,,0.00,WeatherDisplay:10.37,2013-04-23 18:17:00,
2013-04-23 14:18:00,68.9,10.0,30.18,ESE,119,2.7,2.7,10,0.00,CLR,,0.00,WeatherDisplay:10.37,2013-04-23 18:18:00,
2013-04-23 14:21:00,70.0,8.5,30.18,SE,131,6.6,8.1,9,0.00,CLR,,0.00,WeatherDisplay:10.37,2013-04-23 18:21:00,
2013-04-23 14:23:00,70.7,3.5,30.18,ESE,113,1.1,8.1,7,0.00,CLR,,0.00,WeatherDisplay:10.37,2013-04-23 18:23:00,
2013-04-23 14:26:00,68.1,4.5,30.18,East,83,6.7,8.1,8,0.00,CLR,,0.00,WeatherDisplay:10.37,2013-04-23 18:26:00,
2013-04-23 14:27:00,68.0,7.0,30.18,ENE,76,5.0,8.1,9,0.00,CLR,,0.00,WeatherDisplay:10.37,2013-04-23 18:27:00,
2013-04-23 14:28:00,68.4,9.6,30.18,East,92,1.1,8.1,10,0.00,CLR,,0.00,WeatherDisplay:10.37,2013-04-23 18:28:00,
2013-04-23 14:31:00,68.3,9.5,30.18,NE,52,1.2,4.6,10,0.00,CLR,,0.00,WeatherDisplay:10.37,2013-04-23 18:31:00,
2013-04-23 14:32:00,68.1,9.4,30.18,East,92,3.7,8.1,10,0.00,CLR,,0.00,WeatherDisplay:10.37,2013-04-23 18:32:00,
2013-04-23 14:33:00,67.4,8.9,30.18,ESE,102,6.6,8.1,10,0.00,CLR,,0.00,WeatherDisplay:10.37,2013-04-23 18:33:00,
2013-04-23 14:37:00,68.1,11.5,30.18,East,95,7.3,8.4,11,0.00,CLR,,0.00,WeatherDisplay:10.37,2013-04-23 18:37:00,
2013-04-23 14:38:00,68.1,9.4,30.18,East,83,6.1,8.1,10,0.00,CLR,,0.00,WeatherDisplay:10.37,2013-04-23 18:38:00,
2013-04-23 14:42:00,68.0,13.4,30.18,North,10,1.8,5.8,12,0.00,CLR,,0.00,WeatherDisplay:10.37,2013-04-23 18:42:00,
2013-04-23 14:43:00,68.3,15.5,30.18,North,10,0.0,2.3,13,0.00,CLR,,0.00,WeatherDisplay:10.37,2013-04-23 18:43:00,
2013-04-23 14:47:00,68.5,11.8,30.18,NE,44,5.2,9.2,11,0.00,CLR,,0.00,WeatherDisplay:10.37,2013-04-23 18:47:00,
2013-04-23 14:48:00,68.7,12.0,30.18,NE,44,4.0,9.2,11,0.00,CLR,,0.00,WeatherDisplay:10.37,2013-04-23 18:48:00,
2013-04-23 14:49:00,69.4,14.5,30.18,East,88,0.5,8.1,12,0.00,CLR,,0.00,WeatherDisplay:10.37,2013-04-23 18:49:00,
2013-04-23 14:52:00,70.3,8.7,30.18,SSW,199,3.5,7.0,9,0.00,CLR,,0.00,WeatherDisplay:10.37,2013-04-23 18:52:00,
2013-04-23 14:53:00,70.4,6.2,30.18,SSW,198,5.6,6.3,8,0.00,CLR,,0.00,WeatherDisplay:10.37,2013-04-23 18:53:00,
2013-04-23 14:54:00,70.3,6.1,30.18,ENE,66,2.2,6.9,8,0.00,CLR,,0.00,WeatherDisplay:10.37,2013-04-23 18:54:00,
2013-04-23 14:57:00,71.2,3.9,30.17,SE,131,1.4,7.0,7,0.00,CLR,,0.00,WeatherDisplay:10.37,2013-04-23 18:57:00,
2013-04-23 14:58:00,71.5,7.0,30.17,East,97,2.2,5.9,8,0.00,CLR,,0.00,WeatherDisplay:10.37,2013-04-23 18:58:00,
2013-04-23 14:59:00,70.4,3.3,30.17,ESE,113,6.8,9.2,7,0.00,CLR,,0.00,WeatherDisplay:10.37,2013-04-23 18:59:00,
2013-04-23 15:02:00,69.2,5.3,30.17,ENE,78,7.4,9.2,8,0.00,CLR,,0.00,WeatherDisplay:10.37,2013-04-23 19:02:00,
2013-04-23 15:03:00,68.9,7.7,30.17,East,92,5.1,9.2,9,0.00,CLR,,0.00,WeatherDisplay:10.37,2013-04-23 19:03:00,
2013-04-23 15:04:00,68.8,9.9,30.17,SE,124,5.3,9.3,10,0.00,CLR,,0.00,WeatherDisplay:10.37,2013-04-23 19:04:00,
2013-04-23 15:05:00,68.4,11.8,30.17,SE,136,7.8,10.4,11,0.00,CLR,,0.00,WeatherDisplay:10.37,2013-04-23 19:05:00,
2013-04-23 15:08:00,68.2,17.1,30.17,ENE,76,7.0,8.6,14,0.00,CLR,,0.00,WeatherDisplay:10.37,2013-04-23 19:08:00,
2013-04-23 15:09:00,68.5,11.8,30.17,ENE,78,5.6,10.4,11,0.00,CLR,,0.00,WeatherDisplay:10.37,2013-04-23 19:09:00,
2013-04-23 15:10:00,68.1,15.3,30.17,ESE,120,4.0,8.1,13,0.00,CLR,,0.00,WeatherDisplay:10.37,2013-04-23 19:10:00,
2013-04-23 15:13:00,68.4,15.6,30.17,ESE,119,10.7,13.8,13,0.00,CLR,,0.00,WeatherDisplay:10.37,2013-04-23 19:13:00,
2013-04-23 15:14:00,68.9,14.1,30.17,ESE,121,9.1,13.8,12,0.00,CLR,,0.00,WeatherDisplay:10.37,2013-04-23 19:14:00,
2013-04-23 15:15:00,68.7,15.8,30.17,East,85,7.3,12.7,13,0.00,CLR,,0.00,WeatherDisplay:10.37,2013-04-23 19:15:00,
2013-04-23 15:18:00,68.5,15.7,30.16,East,85,7.2,11.6,13,0.00,CLR,,0.00,WeatherDisplay:10.37,2013-04-23 19:18:00,
2013-04-23 15:19:00,68.1,13.5,30.16,East,89,8.4,11.5,12,0.00,CLR,,0.00,WeatherDisplay:10.37,2013-04-23 19:19:00,
2013-04-23 15:21:00,68.7,15.8,30.16,NE,47,3.8,5.8,13,0.00,CLR,,0.00,WeatherDisplay:10.37,2013-04-23 19:21:00,
2013-04-23 15:24:00,69.1,16.1,30.16,East,90,2.5,6.9,13,0.00,CLR,,0.00,WeatherDisplay:10.37,2013-04-23 19:24:00,
2013-04-23 15:26:00,68.8,12.1,30.16,ESE,121,8.9,11.5,11,0.00,CLR,,0.00,WeatherDisplay:10.37,2013-04-23 19:26:00,
2013-04-23 15:29:00,69.6,12.7,30.15,East,99,5.2,8.1,11,0.00,CLR,,0.00,WeatherDisplay:10.37,2013-04-23 19:29:00,
2013-04-23 15:30:00,68.8,9.9,30.15,ENE,64,6.4,10.4,10,0.00,CLR,,0.00,WeatherDisplay:10.37,2013-04-23 19:30:00,
2013-04-23 15:31:00,69.4,12.5,30.15,East,93,5.7,8.1,11,0.00,CLR,,0.00,WeatherDisplay:10.37,2013-04-23 19:31:00,
2013-04-23 15:34:00,68.7,14.0,30.15,ESE,107,5.9,12.7,12,0.00,CLR,,0.00,WeatherDisplay:10.37,2013-04-23 19:34:00,
2013-04-23 15:35:00,68.8,15.9,30.15,East,80,4.7,9.2,13,0.00,CLR,,0.00,WeatherDisplay:10.37,2013-04-23 19:35:00,
2013-04-23 15:36:00,69.2,14.4,30.15,ESE,117,3.2,6.9,12,0.00,CLR,,0.00,WeatherDisplay:10.37,2013-04-23 19:36:00,
2013-04-23 15:39:00,68.5,15.7,30.15,East,93,3.6,9.6,13,0.00,CLR,,0.00,WeatherDisplay:10.37,2013-04-23 19:39:00,
2013-04-23 15:41:00,68.9,14.1,30.15,ESE,116,6.3,12.9,12,0.00,CLR,,0.00,WeatherDisplay:10.37,2013-04-23 19:41:00,
2013-04-23 15:44:00,68.2,13.6,30.15,ESE,114,10.0,10.4,12,0.00,CLR,,0.00,WeatherDisplay:10.37,2013-04-23 19:44:00,
2013-04-23 15:46:00,68.3,13.7,30.15,East,90,6.9,10.4,12,0.00,CLR,,0.00,WeatherDisplay:10.37,2013-04-23 19:46:00,
2013-04-23 15:49:00,68.7,12.0,30.14,East,100,4.5,9.2,11,0.00,CLR,,0.00,WeatherDisplay:10.37,2013-04-23 19:49:00,
2013-04-23 15:50:00,68.7,12.0,30.14,East,96,4.8,9.2,11,0.00,CLR,,0.00,WeatherDisplay:10.37,2013-04-23 19:50:00,
2013-04-23 15:51:00,69.1,14.3,30.14,NE,47,4.0,6.2,12,0.00,CLR,,0.00,WeatherDisplay:10.37,2013-04-23 19:51:00,
2013-04-23 15:54:00,68.1,15.3,30.14,ESE,106,8.8,12.7,13,0.00,CLR,,0.00,WeatherDisplay:10.37,2013-04-23 19:54:00,
2013-04-23 15:55:00,68.5,15.7,30.14,East,88,7.4,11.5,13,0.00,CLR,,0.00,WeatherDisplay:10.37,2013-04-23 19:55:00,
2013-04-23 15:56:00,68.7,15.8,30.14,East,83,5.9,9.2,13,0.00,CLR,,0.00,WeatherDisplay:10.37,2013-04-23 19:56:00,
2013-04-23 15:57:00,68.5,15.7,30.14,ESE,113,5.1,8.1,13,0.00,CLR,,0.00,WeatherDisplay:10.37,2013-04-23 19:57:00,
2013-04-23 16:00:00,68.7,14.0,30.14,ESE,102,6.5,9.2,12,0.00,CLR,,0.00,WeatherDisplay:10.37,2013-04-23 20:00:00,
2013-04-23 16:01:00,69.2,14.4,30.14,East,80,5.3,10.4,12,0.00,CLR,,0.00,WeatherDisplay:10.37,2013-04-23 20:01:00,
2013-04-23 16:02:00,69.2,14.4,30.14,ENE,78,4.8,6.9,12,0.00,CLR,,0.00,WeatherDisplay:10.37,2013-04-23 20:02:00,
2013-04-23 16:05:00,69.5,14.6,30.14,NE,42,5.5,8.1,12,0.00,CLR,,0.00,WeatherDisplay:10.37,2013-04-23 20:05:00,
2013-04-23 16:07:00,69.0,16.0,30.14,NE,48,4.1,9.2,13,0.00,CLR,,0.00,WeatherDisplay:10.37,2013-04-23 20:07:00,
2013-04-23 16:10:00,68.9,17.7,30.14,North,4,5.0,10.4,14,0.00,CLR,,0.00,WeatherDisplay:10.37,2013-04-23 20:10:00,
2013-04-23 16:12:00,68.6,17.4,30.14,East,79,3.5,9.2,14,0.00,CLR,,0.00,WeatherDisplay:10.37,2013-04-23 20:12:00,
2013-04-23 16:15:00,69.5,16.4,30.14,SE,133,3.7,9.2,13,0.00,CLR,,0.00,WeatherDisplay:10.37,2013-04-23 20:15:00,
2013-04-23 16:16:00,69.6,18.2,30.14,SE,130,3.8,6.9,14,0.00,CLR,,0.00,WeatherDisplay:10.37,2013-04-23 20:16:00,
2013-04-23 16:17:00,70.3,15.2,30.14,East,83,3.9,5.8,12,0.00,CLR,,0.00,WeatherDisplay:10.37,2013-04-23 20:17:00,
2013-04-23 16:20:00,70.2,13.2,30.14,NE,38,3.6,10.4,11,0.00,CLR,,0.00,WeatherDisplay:10.37,2013-04-23 20:20:00,
2013-04-23 16:21:00,69.8,12.9,30.14,East,97,5.6,12.1,11,0.00,CLR,,0.00,WeatherDisplay:10.37,2013-04-23 20:21:00,
2013-04-23 16:22:00,69.4,14.5,30.13,SE,134,7.3,11.5,12,0.00,CLR,,0.00,WeatherDisplay:10.37,2013-04-23 20:22:00,
2013-04-23 16:23:00,69.9,16.8,30.13,SE,127,6.0,8.1,13,0.00,CLR,,0.00,WeatherDisplay:10.37,2013-04-23 20:23:00,
2013-04-23 16:25:00,70.3,13.2,30.13,ESE,119,5.0,11.5,11,0.00,CLR,,0.00,WeatherDisplay:10.37,2013-04-23 20:25:00,
2013-04-23 16:26:00,69.4,12.5,30.13,East,82,7.0,11.5,11,0.00,CLR,,0.00,WeatherDisplay:10.37,2013-04-23 20:26:00,
2013-04-23 16:27:00,69.4,14.5,30.13,ESE,123,6.8,10.4,12,0.00,CLR,,0.00,WeatherDisplay:10.37,2013-04-23 20:27:00,
2013-04-23 16:28:00,69.8,14.8,30.13,SE,137,3.0,8.1,12,0.00,CLR,,0.00,WeatherDisplay:10.37,2013-04-23 20:28:00,
2013-04-23 16:31:00,70.3,15.2,30.13,ENE,75,0.0,4.4,12,0.00,CLR,,0.00,WeatherDisplay:10.37,2013-04-23 20:31:00,
2013-04-23 16:32:00,70.6,15.5,30.13,East,89,1.5,4.6,12,0.00,CLR,,0.00,WeatherDisplay:10.37,2013-04-23 20:32:00,
2013-04-23 16:33:00,70.1,13.1,30.13,NE,56,5.6,6.9,11,0.00,CLR,,0.00,WeatherDisplay:10.37,2013-04-23 20:33:00,
2013-04-23 16:36:00,70.5,13.4,30.13,ESE,119,3.9,7.0,11,0.00,CLR,,0.00,WeatherDisplay:10.37,2013-04-23 20:36:00,
2013-04-23 16:37:00,70.9,13.7,30.13,SE,136,4.6,8.1,11,0.00,CLR,,0.00,WeatherDisplay:10.37,2013-04-23 20:37:00,
2013-04-23 16:39:00,71.4,14.1,30.12,ESE,107,1.2,8.1,11,0.00,CLR,,0.00,WeatherDisplay:10.37,2013-04-23 20:39:00,
2013-04-23 16:41:00,70.4,15.3,30.12,East,100,6.8,11.5,12,0.00,CLR,,0.00,WeatherDisplay:10.37,2013-04-23 20:41:00,
2013-04-23 16:42:00,70.4,13.3,30.12,SE,126,7.2,9.2,11,0.00,CLR,,0.00,WeatherDisplay:10.37,2013-04-23 20:42:00,
2013-04-23 16:43:00,70.3,15.2,30.12,East,92,6.6,8.1,12,0.00,CLR,,0.00,WeatherDisplay:10.37,2013-04-23 20:43:00,
2013-04-23 16:44:00,69.7,14.8,30.12,East,89,6.5,10.4,12,0.00,CLR,,0.00,WeatherDisplay:10.37,2013-04-23 20:44:00,
2013-04-23 16:46:00,69.5,18.2,30.12,SE,128,6.3,8.1,14,0.00,CLR,,0.00,WeatherDisplay:10.37,2013-04-23 20:46:00,
2013-04-23 16:47:00,69.4,18.1,30.12,SE,131,5.5,9.2,14,0.00,CLR,,0.00,WeatherDisplay:10.37,2013-04-23 20:47:00,
2013-04-23 16:48:00,69.4,18.1,30.12,SE,145,7.7,12.3,14,0.00,CLR,,0.00,WeatherDisplay:10.37,2013-04-23 20:48:00,
2013-04-23 16:49:00,69.5,16.4,30.12,SE,143,7.0,12.7,13,0.00,CLR,,0.00,WeatherDisplay:10.37,2013-04-23 20:49:00,
2013-04-23 16:51:00,69.5,18.2,30.13,ESE,110,7.3,11.5,14,0.00,CLR,,0.00,WeatherDisplay:10.37,2013-04-23 20:51:00,
2013-04-23 16:52:00,70.0,16.8,30.13,ESE,107,5.5,11.5,13,0.00,CLR,,0.00,WeatherDisplay:10.37,2013-04-23 20:52:00,
2013-04-23 16:53:00,69.9,16.8,30.13,East,97,6.7,10.4,13,0.00,CLR,,0.00,WeatherDisplay:10.37,2013-04-23 20:53:00,
2013-04-23 16:55:00,69.4,16.4,30.13,ESE,103,7.7,11.9,13,0.00,CLR,,0.00,WeatherDisplay:10.37,2013-04-23 20:55:00,
2013-04-23 16:56:00,69.2,14.4,30.13,East,82,5.1,8.1,12,0.00,CLR,,0.00,WeatherDisplay:10.37,2013-04-23 20:56:00,
2013-04-23 16:57:00,69.4,14.5,30.13,ENE,72,4.7,8.1,12,0.00,CLR,,0.00,WeatherDisplay:10.37,2013-04-23 20:57:00,
2013-04-23 16:58:00,69.0,16.0,30.13,ESE,116,4.7,9.2,13,0.00,CLR,,0.00,WeatherDisplay:10.37,2013-04-23 20:58:00,
2013-04-23 17:00:00,68.8,19.2,30.13,ENE,73,5.6,9.3,15,0.00,CLR,,0.00,WeatherDisplay:10.37,2013-04-23 21:00:00,
2013-04-23 17:02:00,68.7,19.1,30.13,SE,133,5.0,6.9,15,0.00,CLR,,0.00,WeatherDisplay:10.37,2013-04-23 21:02:00,
2013-04-23 17:03:00,69.0,19.4,30.12,East,80,4.9,6.9,15,0.00,CLR,,0.00,WeatherDisplay:10.37,2013-04-23 21:03:00,
2013-04-23 17:05:00,68.9,17.7,30.12,East,83,4.5,8.1,14,0.00,CLR,,0.00,WeatherDisplay:10.37,2013-04-23 21:05:00,
2013-04-23 17:07:00,69.8,18.4,30.12,ENE,76,0.0,4.6,14,0.00,CLR,,0.00,WeatherDisplay:10.37,2013-04-23 21:07:00,
2013-04-23 17:08:00,69.8,18.4,30.12,SE,127,2.7,8.6,14,0.00,CLR,,0.00,WeatherDisplay:10.37,2013-04-23 21:08:00,
2013-04-23 17:10:00,70.2,17.0,30.13,East,86,6.4,11.0,13,0.00,CLR,,0.00,WeatherDisplay:10.37,2013-04-23 21:10:00,
2013-04-23 17:12:00,69.9,14.9,30.12,East,99,8.3,10.4,12,0.00,CLR,,0.00,WeatherDisplay:10.37,2013-04-23 21:12:00,
2013-04-23 17:13:00,70.4,17.2,30.12,SE,124,7.2,10.4,13,0.00,CLR,,0.00,WeatherDisplay:10.37,2013-04-23 21:13:00,
2013-04-23 17:14:00,70.2,15.1,30.12,ESE,103,5.1,6.9,12,0.00,CLR,,0.00,WeatherDisplay:10.37,2013-04-23 21:14:00,
2013-04-23 17:15:00,70.2,15.1,30.12,ENE,69,5.8,6.9,12,0.00,CLR,,0.00,WeatherDisplay:10.37,2013-04-23 21:15:00,
2013-04-23 17:17:00,70.8,15.6,30.12,SSE,154,5.8,11.5,12,0.00,CLR,,0.00,WeatherDisplay:10.37,2013-04-23 21:17:00,
2013-04-23 17:18:00,70.5,13.4,30.12,NE,35,5.3,12.7,11,0.00,CLR,,0.00,WeatherDisplay:10.37,2013-04-23 21:18:00,
2013-04-23 17:21:00,70.7,15.5,30.12,East,83,3.5,8.1,12,0.00,CLR,,0.00,WeatherDisplay:10.37,2013-04-23 21:21:00,
2013-04-23 17:22:00,70.4,15.3,30.12,ESE,109,7.8,8.7,12,0.00,CLR,,0.00,WeatherDisplay:10.37,2013-04-23 21:22:00,
2013-04-23 17:23:00,70.0,13.0,30.12,ESE,114,7.6,9.2,11,0.00,CLR,,0.00,WeatherDisplay:10.37,2013-04-23 21:23:00,
2013-04-23 17:24:00,70.0,15.0,30.12,East,83,7.2,9.2,12,0.00,CLR,,0.00,WeatherDisplay:10.37,2013-04-23 21:24:00,
2013-04-23 17:26:00,68.9,14.1,30.12,ESE,116,9.4,10.4,12,0.00,CLR,,0.00,WeatherDisplay:10.37,2013-04-23 21:26:00,
2013-04-23 17:27:00,68.4,18.9,30.12,SE,127,7.9,13.8,15,0.00,CLR,,0.00,WeatherDisplay:10.37,2013-04-23 21:27:00,
2013-04-23 17:28:00,69.1,17.8,30.11,East,93,5.0,10.4,14,0.00,CLR,,0.00,WeatherDisplay:10.37,2013-04-23 21:28:00,
2013-04-23 17:29:00,68.7,17.5,30.11,East,88,4.7,8.1,14,0.00,CLR,,0.00,WeatherDisplay:10.37,2013-04-23 21:29:00,
2013-04-23 17:31:00,69.5,19.8,30.11,ESE,104,2.3,6.9,15,0.00,CLR,,0.00,WeatherDisplay:10.37,2013-04-23 21:31:00,
2013-04-23 17:33:00,69.0,16.0,30.11,East,95,7.7,12.7,13,0.00,CLR,,0.00,WeatherDisplay:10.37,2013-04-23 21:33:00,
2013-04-23 17:34:00,69.3,16.3,30.12,ESE,123,7.8,11.5,13,0.00,CLR,,0.00,WeatherDisplay:10.37,2013-04-23 21:34:00,
2013-04-23 17:35:00,69.0,17.8,30.11,East,93,8.1,12.7,14,0.00,CLR,,0.00,WeatherDisplay:10.37,2013-04-23 21:35:00,
2013-04-23 17:36:00,68.8,15.9,30.12,ENE,68,6.9,8.1,13,0.00,CLR,,0.00,WeatherDisplay:10.37,2013-04-23 21:36:00,
2013-04-23 17:38:00,68.6,19.1,30.12,East,93,7.2,10.4,15,0.00,CLR,,0.00,WeatherDisplay:10.37,2013-04-23 21:38:00,
2013-04-23 17:39:00,68.8,17.6,30.12,East,92,7.1,10.4,14,0.00,CLR,,0.00,WeatherDisplay:10.37,2013-04-23 21:39:00,
2013-04-23 17:40:00,69.2,17.9,30.12,ESE,102,7.8,10.4,14,0.00,CLR,,0.00,WeatherDisplay:10.37,2013-04-23 21:40:00,
2013-04-23 17:42:00,69.4,18.1,30.12,ESE,113,9.3,13.8,14,0.00,CLR,,0.00,WeatherDisplay:10.37,2013-04-23 21:42:00,
2013-04-23 17:43:00,69.4,16.4,30.12,NE,48,6.9,11.5,13,0.00,CLR,,0.00,WeatherDisplay:10.37,2013-04-23 21:43:00,
2013-04-23 17:44:00,69.1,16.1,30.12,SE,127,7.6,11.5,13,0.00,CLR,,0.00,WeatherDisplay:10.37,2013-04-23 21:44:00,
2013-04-23 17:45:00,68.7,19.1,30.12,ENE,75,6.5,13.8,15,0.00,CLR,,0.00,WeatherDisplay:10.37,2013-04-23 21:45:00,
2013-04-23 17:47:00,69.0,17.8,30.12,ENE,58,5.8,11.0,14,0.00,CLR,,0.00,WeatherDisplay:10.37,2013-04-23 21:47:00,
2013-04-23 17:48:00,68.7,17.5,30.12,East,99,7.8,15.0,14,0.00,CLR,,0.00,WeatherDisplay:10.37,2013-04-23 21:48:00,
2013-04-23 17:49:00,68.6,19.1,30.12,ESE,109,6.7,12.7,15,0.00,CLR,,0.00,WeatherDisplay:10.37,2013-04-23 21:49:00,
2013-04-23 17:50:00,68.9,17.7,30.12,SE,130,8.4,11.1,14,0.00,CLR,,0.00,WeatherDisplay:10.37,2013-04-23 21:50:00,
2013-04-23 17:52:00,68.5,20.5,30.12,SSE,154,6.5,10.4,16,0.00,CLR,,0.00,WeatherDisplay:10.37,2013-04-23 21:52:00,
2013-04-23 17:54:00,69.3,18.0,30.12,NE,40,5.5,8.1,14,0.00,CLR,,0.00,WeatherDisplay:10.37,2013-04-23 21:54:00,
2013-04-23 17:55:00,69.3,18.0,30.12,SE,128,8.7,11.5,14,0.00,CLR,,0.00,WeatherDisplay:10.37,2013-04-23 21:55:00,
2013-04-23 17:57:00,69.4,16.4,30.12,East,85,5.9,9.2,13,0.00,CLR,,0.00,WeatherDisplay:10.37,2013-04-23 21:57:00,
2013-04-23 17:59:00,69.7,18.3,30.12,East,88,5.9,8.1,14,0.00,CLR,,0.00,WeatherDisplay:10.37,2013-04-23 21:59:00,
2013-04-23 18:01:00,69.4,18.1,30.12,ENE,78,5.6,9.2,14,0.00,CLR,,0.00,WeatherDisplay:10.37,2013-04-23 22:01:00,
2013-04-23 18:02:00,69.4,16.4,30.12,ESE,109,5.3,8.1,13,0.00,CLR,,0.00,WeatherDisplay:10.37,2013-04-23 22:02:00,
2013-04-23 18:04:00,69.7,18.3,30.11,East,90,6.5,10.4,14,0.00,CLR,,0.00,WeatherDisplay:10.37,2013-04-23 22:04:00,
2013-04-23 18:06:00,69.1,19.5,30.12,ESE,120,6.0,10.4,15,0.00,CLR,,0.00,WeatherDisplay:10.37,2013-04-23 22:06:00,
2013-04-23 18:07:00,69.1,19.5,30.12,ESE,120,10.4,12.7,15,0.00,CLR,,0.00,WeatherDisplay:10.37,2013-04-23 22:07:00,
2013-04-23 18:09:00,69.1,17.8,30.12,East,97,5.9,11.5,14,0.00,CLR,,0.00,WeatherDisplay:10.37,2013-04-23 22:09:00,
2013-04-23 18:10:00,69.4,18.1,30.12,SE,136,5.9,9.2,14,0.00,CLR,,0.00,WeatherDisplay:10.37,2013-04-23 22:10:00,
2013-04-23 18:11:00,69.2,17.9,30.12,East,95,5.2,8.1,14,0.00,CLR,,0.00,WeatherDisplay:10.37,2013-04-23 22:11:00,
2013-04-23 18:12:00,69.5,18.2,30.12,ESE,109,6.8,11.1,14,0.00,CLR,,0.00,WeatherDisplay:10.37,2013-04-23 22:12:00,
2013-04-23 18:14:00,69.4,18.1,30.12,ENE,71,9.6,10.4,14,0.00,CLR,,0.00,WeatherDisplay:10.37,2013-04-23 22:14:00,
2013-04-23 18:15:00,68.8,17.6,30.12,East,100,8.7,13.8,14,0.00,CLR,,0.00,WeatherDisplay:10.37,2013-04-23 22:15:00,
2013-04-23 18:16:00,69.4,19.7,30.12,SE,145,10.6,16.1,15,0.00,CLR,,0.00,WeatherDisplay:10.37,2013-04-23 22:16:00,
2013-04-23 18:17:00,69.3,18.0,30.12,ENE,76,7.0,12.7,14,0.00,CLR,,0.00,WeatherDisplay:10.37,2013-04-23 22:17:00,
2013-04-23 18:19:00,68.6,19.1,30.12,ESE,119,8.5,9.2,15,0.00,CLR,,0.00,WeatherDisplay:10.37,2013-04-23 22:19:00,
2013-04-23 18:20:00,69.2,19.5,30.12,East,95,8.4,11.5,15,0.00,CLR,,0.00,WeatherDisplay:10.37,2013-04-23 22:20:00,
2013-04-23 18:21:00,69.4,19.7,30.12,East,86,5.5,11.5,15,0.00,CLR,,0.00,WeatherDisplay:10.37,2013-04-23 22:21:00,
2013-04-23 18:22:00,69.5,16.4,30.12,NE,38,5.1,6.9,13,0.00,CLR,,0.00,WeatherDisplay:10.37,2013-04-23 22:22:00,
2013-04-23 18:24:00,70.3,17.1,30.12,East,79,5.6,9.2,13,0.00,CLR,,0.00,WeatherDisplay:10.37,2013-04-23 22:24:00,
2013-04-23 18:25:00,70.2,17.0,30.12,ESE,114,8.0,13.8,13,0.00,CLR,,0.00,WeatherDisplay:10.37,2013-04-23 22:25:00,
2013-04-23 18:26:00,69.7,16.6,30.12,ESE,102,4.6,8.1,13,0.00,CLR,,0.00,WeatherDisplay:10.37,2013-04-23 22:26:00,
2013-04-23 18:28:00,69.8,18.4,30.12,East,100,7.9,9.2,14,0.00,CLR,,0.00,WeatherDisplay:10.37,2013-04-23 22:28:00,
2013-04-23 18:29:00,69.5,18.2,30.12,ESE,117,6.0,9.2,14,0.00,CLR,,0.00,WeatherDisplay:10.37,2013-04-23 22:29:00,
2013-04-23 18:30:00,69.4,18.1,30.12,SE,138,6.1,9.2,14,0.00,CLR,,0.00,WeatherDisplay:10.37,2013-04-23 22:30:00,
2013-04-23 18:31:00,69.4,18.1,30.12,ESE,119,6.1,9.2,14,0.00,CLR,,0.00,WeatherDisplay:10.37,2013-04-23 22:31:00,
2013-04-23 18:33:00,68.8,19.2,30.12,ESE,104,5.0,9.2,15,0.00,CLR,,0.00,WeatherDisplay:10.37,2013-04-23 22:33:00,
2013-04-23 18:35:00,68.5,19.0,30.12,SE,136,7.0,9.2,15,0.00,CLR,,0.00,WeatherDisplay:10.37,2013-04-23 22:35:00,
2013-04-23 18:36:00,68.3,18.8,30.12,East,85,7.1,9.2,15,0.00,CLR,,0.00,WeatherDisplay:10.37,2013-04-23 22:36:00,
2013-04-23 18:37:00,68.0,18.6,30.12,East,90,6.3,8.6,15,0.00,CLR,,0.00,WeatherDisplay:10.37,2013-04-23 22:37:00,
2013-04-23 18:38:00,67.7,19.8,30.11,East,88,7.3,10.4,16,0.00,CLR,,0.00,WeatherDisplay:10.37,2013-04-23 22:38:00,
2013-04-23 18:40:00,68.2,23.0,30.11,SE,136,5.1,11.4,18,0.00,CLR,,0.00,WeatherDisplay:10.37,2013-04-23 22:40:00,
2013-04-23 18:41:00,67.3,19.5,30.11,SE,124,9.5,13.8,16,0.00,CLR,,0.00,WeatherDisplay:10.37,2013-04-23 22:41:00,
2013-04-23 18:42:00,67.7,22.6,30.11,SE,140,7.0,11.5,18,0.00,CLR,,0.00,WeatherDisplay:10.37,2013-04-23 22:42:00,
2013-04-23 18:43:00,67.4,19.6,30.11,ENE,71,6.6,9.2,16,0.00,CLR,,0.00,WeatherDisplay:10.37,2013-04-23 22:43:00,
2013-04-23 18:45:00,66.7,20.5,30.11,ESE,116,8.6,10.4,17,0.00,CLR,,0.00,WeatherDisplay:10.37,2013-04-23 22:45:00,
2013-04-23 18:46:00,66.7,20.5,30.11,ENE,75,7.1,11.5,17,0.00,CLR,,0.00,WeatherDisplay:10.37,2013-04-23 22:46:00,
2013-04-23 18:48:00,66.2,22.7,30.12,ESE,103,8.1,10.4,19,0.00,CLR,,0.00,WeatherDisplay:10.37,2013-04-23 22:48:00,
2013-04-23 18:50:00,66.8,21.9,30.12,SE,131,7.7,9.3,18,0.00,CLR,,0.00,WeatherDisplay:10.37,2013-04-23 22:50:00,
2013-04-23 18:51:00,67.2,22.2,30.12,East,92,5.2,8.1,18,0.00,CLR,,0.00,WeatherDisplay:10.37,2013-04-23 22:51:00,
2013-04-23 18:52:00,67.1,20.8,30.12,SE,134,6.3,9.4,17,0.00,CLR,,0.00,WeatherDisplay:10.37,2013-04-23 22:52:00,
2013-04-23 18:53:00,67.0,22.1,30.12,SE,126,8.3,9.2,18,0.00,CLR,,0.00,WeatherDisplay:10.37,2013-04-23 22:53:00,
2013-04-23 18:55:00,67.1,23.4,30.12,ESE,117,5.6,8.1,19,0.00,CLR,,0.00,WeatherDisplay:10.37,2013-04-23 22:55:00,
2013-04-23 18:57:00,67.3,23.6,30.12,ENE,58,3.5,6.9,19,0.00,CLR,,0.00,WeatherDisplay:10.37,2013-04-23 22:57:00,
2013-04-23 18:58:00,67.3,22.3,30.12,SE,131,5.0,6.9,18,0.00,CLR,,0.00,WeatherDisplay:10.37,2013-04-23 22:58:00,
2013-04-23 19:00:00,67.3,22.3,30.12,SE,130,4.8,11.5,18,0.00,CLR,,0.00,WeatherDisplay:10.37,2013-04-23 23:00:00,
2013-04-23 19:02:00,67.4,22.4,30.12,SSE,167,5.6,9.2,18,0.00,CLR,,0.00,WeatherDisplay:10.37,2013-04-23 23:02:00,
2013-04-23 19:03:00,67.4,19.6,30.12,NE,56,5.6,9.2,16,0.00,CLR,,0.00,WeatherDisplay:10.37,2013-04-23 23:03:00,
2013-04-23 19:06:00,67.3,22.3,30.12,East,89,5.5,10.4,18,0.00,CLR,,0.00,WeatherDisplay:10.37,2013-04-23 23:06:00,
2013-04-23 19:07:00,67.0,20.7,30.12,East,89,4.4,5.9,17,0.00,CLR,,0.00,WeatherDisplay:10.37,2013-04-23 23:07:00,
2013-04-23 19:08:00,67.2,22.2,30.12,ESE,117,5.5,9.2,18,0.00,CLR,,0.00,WeatherDisplay:10.37,2013-04-23 23:08:00,
2013-04-23 19:11:00,66.9,22.0,30.13,ESE,117,5.9,9.2,18,0.00,CLR,,0.00,WeatherDisplay:10.37,2013-04-23 23:11:00,
2013-04-23 19:12:00,67.0,23.3,30.13,ESE,103,4.8,8.1,19,0.00,CLR,,0.00,WeatherDisplay:10.37,2013-04-23 23:12:00,
2013-04-23 19:13:00,66.8,21.9,30.13,ESE,121,6.6,9.2,18,0.00,CLR,,0.00,WeatherDisplay:10.37,2013-04-23 23:13:00,
2013-04-23 19:14:00,66.8,21.9,30.13,SE,144,6.9,9.2,18,0.00,CLR,,0.00,WeatherDisplay:10.37,2013-04-23 23:14:00,
2013-04-23 19:16:00,66.7,21.8,30.13,ESE,102,6.9,8.1,18,0.00,CLR,,0.00,WeatherDisplay:10.37,2013-04-23 23:16:00,
2013-04-23 19:17:00,66.4,24.1,30.13,ENE,66,6.1,10.4,20,0.00,CLR,,0.00,WeatherDisplay:10.37,2013-04-23 23:17:00,
2013-04-23 19:18:00,66.7,23.1,30.13,East,85,5.2,8.1,19,0.00,CLR,,0.00,WeatherDisplay:10.37,2013-04-23 23:18:00,
2013-04-23 19:19:00,66.8,23.2,30.13,ESE,106,4.5,5.8,19,0.00,CLR,,0.00,WeatherDisplay:10.37,2013-04-23 23:19:00,
2013-04-23 19:21:00,66.6,23.0,30.13,East,86,4.0,5.8,19,0.00,CLR,,0.00,WeatherDisplay:10.37,2013-04-23 23:21:00,
2013-04-23 19:22:00,66.8,23.2,30.13,ESE,119,3.6,5.8,19,0.00,CLR,,0.00,WeatherDisplay:10.37,2013-04-23 23:22:00,
2013-04-23 19:23:00,66.2,21.4,30.13,East,93,5.1,6.9,18,0.00,CLR,,0.00,WeatherDisplay:10.37,2013-04-23 23:23:00,
2013-04-23 19:24:00,66.3,22.8,30.13,ESE,109,5.5,8.1,19,0.00,CLR,,0.00,WeatherDisplay:10.37,2013-04-23 23:24:00,
2013-04-23 19:26:00,66.4,25.2,30.13,SE,136,3.8,7.0,21,0.00,CLR,,0.00,WeatherDisplay:10.37,2013-04-23 23:26:00,
2013-04-23 19:27:00,66.3,24.0,30.13,East,93,4.9,8.1,20,0.00,CLR,,0.00,WeatherDisplay:10.37,2013-04-23 23:27:00,
2013-04-23 19:28:00,66.3,24.0,30.13,ESE,123,4.7,6.3,20,0.00,CLR,,0.00,WeatherDisplay:10.37,2013-04-23 23:28:00,
2013-04-23 19:29:00,65.8,22.3,30.13,East,89,4.3,6.3,19,0.00,CLR,,0.00,WeatherDisplay:10.37,2013-04-23 23:29:00,
2013-04-23 19:30:00,66.0,24.9,30.13,ENE,73,5.3,6.9,21,0.00,CLR,,0.00,WeatherDisplay:10.37,2013-04-23 23:30:00,
2013-04-23 19:32:00,65.9,24.8,30.13,SE,137,4.8,8.1,21,0.00,CLR,,0.00,WeatherDisplay:10.37,2013-04-23 23:32:00,
2013-04-23 19:34:00,66.1,25.0,30.13,SE,145,2.5,7.8,21,0.00,CLR,,0.00,WeatherDisplay:10.37,2013-04-23 23:34:00,
2013-04-23 19:35:00,66.3,25.2,30.13,East,82,4.7,8.1,21,0.00,CLR,,0.00,WeatherDisplay:10.37,2013-04-23 23:35:00,
2013-04-23 19:37:00,65.9,23.7,30.13,SE,128,4.6,6.9,20,0.00,CLR,,0.00,WeatherDisplay:10.37,2013-04-23 23:37:00,
2013-04-23 19:38:00,65.4,23.2,30.13,SE,130,6.3,8.1,20,0.00,CLR,,0.00,WeatherDisplay:10.37,2013-04-23 23:38:00,
2013-04-23 19:39:00,65.6,23.4,30.13,ESE,106,5.0,8.1,20,0.00,CLR,,0.00,WeatherDisplay:10.37,2013-04-23 23:39:00,
2013-04-23 19:40:00,65.3,24.3,30.13,East,79,5.0,7.6,21,0.00,CLR,,0.00,WeatherDisplay:10.37,2013-04-23 23:40:00,
2013-04-23 19:42:00,65.4,26.6,30.13,ESE,110,7.3,10.4,23,0.00,CLR,,0.00,WeatherDisplay:10.37,2013-04-23 23:42:00,
2013-04-23 19:44:00,64.9,24.0,30.13,East,95,4.9,9.4,21,0.00,CLR,,0.00,WeatherDisplay:10.37,2013-04-23 23:44:00,
2013-04-23 19:46:00,64.9,26.2,30.13,SE,124,5.3,9.2,23,0.00,CLR,,0.00,WeatherDisplay:10.37,2013-04-23 23:46:00,
2013-04-23 19:47:00,65.1,25.3,30.13,SE,138,6.6,10.4,22,0.00,CLR,,0.00,WeatherDisplay:10.37,2013-04-23 23:47:00,
2013-04-23 19:49:00,65.1,26.3,30.13,East,83,1.8,5.8,23,0.00,CLR,,0.00,WeatherDisplay:10.37,2013-04-23 23:49:00,
2013-04-23 19:52:00,64.5,24.8,30.13,ENE,76,5.5,6.9,22,0.00,CLR,,0.00,WeatherDisplay:10.37,2013-04-23 23:52:00,
2013-04-23 19:53:00,64.7,24.9,30.13,ENE,76,5.4,8.8,22,0.00,CLR,,0.00,WeatherDisplay:10.37,2013-04-23 23:53:00,
2013-04-23 19:54:00,64.5,26.9,30.13,ESE,112,7.6,9.2,24,0.00,CLR,,0.00,WeatherDisplay:10.37,2013-04-23 23:54:00,
2013-04-23 19:55:00,64.5,25.8,30.13,ESE,114,2.8,10.4,23,0.00,CLR,,0.00,WeatherDisplay:10.37,2013-04-23 23:55:00,
2013-04-23 19:57:00,64.7,27.0,30.13,East,100,6.0,6.9,24,0.00,CLR,,0.00,WeatherDisplay:10.37,2013-04-23 23:57:00,
2013-04-23 19:58:00,64.7,26.0,30.13,ESE,114,3.5,8.1,23,0.00,CLR,,0.00,WeatherDisplay:10.37,2013-04-23 23:58:00,
2013-04-23 19:59:00,64.7,24.9,30.13,East,96,5.4,8.1,22,0.00,CLR,,0.00,WeatherDisplay:10.37,2013-04-23 23:59:00,
2013-04-23 20:00:00,64.6,25.9,30.13,ESE,119,2.1,8.1,23,0.00,CLR,,0.00,WeatherDisplay:10.37,2013-04-24 00:00:00,
2013-04-23 20:02:00,64.4,25.8,30.13,ESE,117,5.0,8.1,23,0.00,CLR,,0.00,WeatherDisplay:10.37,2013-04-24 00:02:00,
2013-04-23 20:03:00,64.3,25.7,30.13,East,96,4.2,6.9,23,0.00,CLR,,0.00,WeatherDisplay:10.37,2013-04-24 00:03:00,
2013-04-23 20:04:00,64.1,25.5,30.13,ESE,123,5.7,8.1,23,0.00,CLR,,0.00,WeatherDisplay:10.37,2013-04-24 00:04:00,
2013-04-23 20:05:00,64.1,26.5,30.13,ESE,106,6.3,7.0,24,0.00,CLR,,0.00,WeatherDisplay:10.37,2013-04-24 00:05:00,
2013-04-23 20:07:00,64.0,25.4,30.13,ESE,117,3.0,6.9,23,0.00,CLR,,0.00,WeatherDisplay:10.37,2013-04-24 00:07:00,
2013-04-23 20:08:00,64.4,26.8,30.13,ESE,116,5.2,7.7,24,0.00,CLR,,0.00,WeatherDisplay:10.37,2013-04-24 00:08:00,
2013-04-23 20:09:00,64.1,27.5,30.13,East,95,5.6,8.1,25,0.00,CLR,,0.00,WeatherDisplay:10.37,2013-04-24 00:09:00,
2013-04-23 20:10:00,64.1,26.5,30.13,ESE,114,2.9,6.9,24,0.00,CLR,,0.00,WeatherDisplay:10.37,2013-04-24 00:10:00,
2013-04-23 20:12:00,64.3,27.7,30.13,ESE,116,5.9,6.9,25,0.00,CLR,,0.00,WeatherDisplay:10.37,2013-04-24 00:12:00,
2013-04-23 20:13:00,64.2,26.6,30.13,ESE,107,3.6,8.1,24,0.00,CLR,,0.00,WeatherDisplay:10.37,2013-04-24 00:13:00,
2013-04-23 20:14:00,64.3,26.7,30.13,East,95,2.8,4.6,24,0.00,CLR,,0.00,WeatherDisplay:10.37,2013-04-24 00:14:00,
2013-04-23 20:15:00,64.0,25.4,30.13,East,96,4.9,8.8,23,0.00,CLR,,0.00,WeatherDisplay:10.37,2013-04-24 00:15:00,
2013-04-23 20:17:00,63.8,26.3,30.13,SSE,150,4.7,8.1,24,0.00,CLR,,0.00,WeatherDisplay:10.37,2013-04-24 00:17:00,
2013-04-23 20:18:00,63.8,27.3,30.13,East,95,6.2,8.1,25,0.00,CLR,,0.00,WeatherDisplay:10.37,2013-04-24 00:18:00,
2013-04-23 20:19:00,63.9,26.4,30.13,ESE,109,5.5,8.1,24,0.00,CLR,,0.00,WeatherDisplay:10.37,2013-04-24 00:19:00,
2013-04-23 20:20:00,63.5,27.0,30.13,ESE,104,1.1,5.8,25,0.00,CLR,,0.00,WeatherDisplay:10.37,2013-04-24 00:20:00,
2013-04-23 20:21:00,63.9,27.4,30.13,ESE,109,1.8,5.8,25,0.00,CLR,,0.00,WeatherDisplay:10.37,2013-04-24 00:21:00,
2013-04-23 20:22:00,63.6,28.1,30.13,ESE,116,6.8,10.4,26,0.00,CLR,,0.00,WeatherDisplay:10.37,2013-04-24 00:22:00,
2013-04-23 20:23:00,64.3,28.7,30.13,ESE,116,5.1,10.4,26,0.00,CLR,,0.00,WeatherDisplay:10.37,2013-04-24 00:23:00,
2013-04-23 20:24:00,64.0,27.4,30.13,ESE,104,5.3,6.9,25,0.00,CLR,,0.00,WeatherDisplay:10.37,2013-04-24 00:24:00,
2013-04-23 20:25:00,63.7,26.2,30.13,ESE,119,4.3,8.1,24,0.00,CLR,,0.00,WeatherDisplay:10.37,2013-04-24 00:25:00,
2013-04-23 20:26:00,63.9,27.4,30.13,East,100,5.2,8.3,25,0.00,CLR,,0.00,WeatherDisplay:10.37,2013-04-24 00:26:00,
2013-04-23 20:28:00,63.3,25.9,30.14,ESE,116,5.0,5.8,24,0.00,CLR,,0.00,WeatherDisplay:10.37,2013-04-24 00:28:00,
2013-04-23 20:29:00,63.6,28.1,30.14,SE,127,4.0,6.9,26,0.00,CLR,,0.00,WeatherDisplay:10.37,2013-04-24 00:29:00,
2013-04-23 20:30:00,63.4,26.9,30.14,ENE,76,5.0,6.2,25,0.00,CLR,,0.00,WeatherDisplay:10.37,2013-04-24 00:30:00,
2013-04-23 20:31:00,63.4,26.9,30.14,ENE,62,5.0,6.9,25,0.00,CLR,,0.00,WeatherDisplay:10.37,2013-04-24 00:31:00,
2013-04-23 20:34:00,63.4,27.9,30.14,ESE,116,4.4,5.8,26,0.00,CLR,,0.00,WeatherDisplay:10.37,2013-04-24 00:34:00,
2013-04-23 20:35:00,63.4,27.9,30.14,ESE,107,4.6,6.9,26,0.00,CLR,,0.00,WeatherDisplay:10.37,2013-04-24 00:35:00,
2013-04-23 20:36:00,63.1,26.7,30.14,ESE,106,4.6,6.9,25,0.00,CLR,,0.00,WeatherDisplay:10.37,2013-04-24 00:36:00,
2013-04-23 20:39:00,63.1,27.6,30.14,East,86,5.3,7.6,26,0.00,CLR,,0.00,WeatherDisplay:10.37,2013-04-24 00:39:00,
2013-04-23 20:40:00,63.1,27.6,30.14,East,89,6.4,8.1,26,0.00,CLR,,0.00,WeatherDisplay:10.37,2013-04-24 00:40:00,
2013-04-23 20:41:00,62.8,27.4,30.14,ESE,119,4.4,6.9,26,0.00,CLR,,0.00,WeatherDisplay:10.37,2013-04-24 00:41:00,
2013-04-23 20:44:00,63.0,27.5,30.14,East,95,4.0,8.1,26,0.00,CLR,,0.00,WeatherDisplay:10.37,2013-04-24 00:44:00,
2013-04-23 20:45:00,62.5,28.9,30.14,SSE,165,4.5,7.4,28,0.00,CLR,,0.00,WeatherDisplay:10.37,2013-04-24 00:45:00,
2013-04-23 20:46:00,63.1,27.6,30.14,ESE,116,6.1,8.1,26,0.00,CLR,,0.00,WeatherDisplay:10.37,2013-04-24 00:46:00,
2013-04-23 20:49:00,62.8,27.4,30.14,East,93,3.4,6.0,26,0.00,CLR,,0.00,WeatherDisplay:10.37,2013-04-24 00:49:00,
2013-04-23 20:50:00,62.7,28.2,30.14,ENE,71,3.5,6.9,27,0.00,CLR,,0.00,WeatherDisplay:10.37,2013-04-24 00:50:00,
2013-04-23 20:51:00,62.7,27.3,30.14,ESE,120,6.0,6.9,26,0.00,CLR,,0.00,WeatherDisplay:10.37,2013-04-24 00:51:00,
2013-04-23 20:52:00,62.8,27.4,30.14,ESE,123,5.7,8.1,26,0.00,CLR,,0.00,WeatherDisplay:10.37,2013-04-24 00:52:00,
2013-04-23 20:55:00,63.0,27.5,30.14,ENE,78,4.6,5.8,26,0.00,CLR,,0.00,WeatherDisplay:10.37,2013-04-24 00:55:00,
2013-04-23 20:56:00,63.0,28.5,30.14,ESE,103,4.5,5.8,27,0.00,CLR,,0.00,WeatherDisplay:10.37,2013-04-24 00:56:00,
2013-04-23 20:57:00,62.8,29.2,30.14,East,85,3.9,5.8,28,0.00,CLR,,0.00,WeatherDisplay:10.37,2013-04-24 00:57:00,
2013-04-23 21:00:00,62.6,28.1,30.14,East,82,5.0,6.9,27,0.00,CLR,,0.00,WeatherDisplay:10.37,2013-04-24 01:00:00,
2013-04-23 21:01:00,62.5,28.0,30.14,East,83,3.6,6.9,27,0.00,CLR,,0.00,WeatherDisplay:10.37,2013-04-24 01:01:00,
2013-04-23 21:02:00,62.6,28.1,30.14,East,83,0.7,5.8,27,0.00,CLR,,0.00,WeatherDisplay:10.37,2013-04-24 01:02:00,
2013-04-23 21:05:00,62.8,28.3,30.14,ESE,109,3.9,6.9,27,0.00,CLR,,0.00,WeatherDisplay:10.37,2013-04-24 01:05:00,
2013-04-23 21:07:00,62.4,27.9,30.15,ESE,106,5.9,8.1,27,0.00,CLR,,0.00,WeatherDisplay:10.37,2013-04-24 01:07:00,
2013-04-23 21:10:00,62.6,29.0,30.14,ESE,120,3.9,5.8,28,0.00,CLR,,0.00,WeatherDisplay:10.37,2013-04-24 01:10:00,
2013-04-23 21:12:00,62.8,28.3,30.15,ESE,119,4.5,6.9,27,0.00,CLR,,0.00,WeatherDisplay:10.37,2013-04-24 01:12:00,
2013-04-23 21:15:00,62.2,28.7,30.14,East,85,3.9,6.9,28,0.00,CLR,,0.00,WeatherDisplay:10.37,2013-04-24 01:15:00,
2013-04-23 21:16:00,62.3,28.7,30.14,SE,127,4.0,5.8,28,0.00,CLR,,0.00,WeatherDisplay:10.37,2013-04-24 01:16:00,
2013-04-23 21:17:00,61.7,28.2,30.14,ESE,114,4.1,5.8,28,0.00,CLR,,0.00,WeatherDisplay:10.37,2013-04-24 01:17:00,
2013-04-23 21:21:00,62.1,29.4,30.14,ESE,109,1.3,4.6,29,0.00,CLR,,0.00,WeatherDisplay:10.37,2013-04-24 01:21:00,
2013-04-23 21:22:00,61.8,28.3,30.14,East,93,4.8,5.8,28,0.00,CLR,,0.00,WeatherDisplay:10.37,2013-04-24 01:22:00,
2013-04-23 21:25:00,60.9,28.4,30.14,ENE,76,5.7,7.1,29,0.00,CLR,,0.00,WeatherDisplay:10.37,2013-04-24 01:25:00,
2013-04-23 21:26:00,61.2,28.7,30.14,East,92,6.4,6.9,29,0.00,CLR,,0.00,WeatherDisplay:10.37,2013-04-24 01:26:00,
2013-04-23 21:27:00,61.4,29.7,30.14,ESE,102,5.0,8.1,30,0.00,CLR,,0.00,WeatherDisplay:10.37,2013-04-24 01:27:00,
2013-04-23 21:31:00,61.4,29.7,30.14,East,97,5.8,6.9,30,0.00,CLR,,0.00,WeatherDisplay:10.37,2013-04-24 01:31:00,
2013-04-23 21:33:00,60.9,28.4,30.14,East,96,5.7,8.1,29,0.00,CLR,,0.00,WeatherDisplay:10.37,2013-04-24 01:33:00,
2013-04-23 21:34:00,60.8,29.1,30.13,ENE,68,6.1,9.2,30,0.00,CLR,,0.00,WeatherDisplay:10.37,2013-04-24 01:34:00,
2013-04-23 21:36:00,61.0,29.3,30.14,East,100,4.8,6.9,30,0.00,CLR,,0.00,WeatherDisplay:10.37,2013-04-24 01:36:00,
2013-04-23 21:38:00,61.0,29.3,30.14,ESE,116,5.9,6.9,30,0.00,CLR,,0.00,WeatherDisplay:10.37,2013-04-24 01:38:00,
2013-04-23 21:39:00,61.1,29.4,30.14,East,86,5.7,8.1,30,0.00,CLR,,0.00,WeatherDisplay:10.37,2013-04-24 01:39:00,
2013-04-23 21:41:00,60.8,29.1,30.14,ENE,72,6.9,8.1,30,0.00,CLR,,0.00,WeatherDisplay:10.37,2013-04-24 01:41:00,
2013-04-23 21:43:00,61.0,29.3,30.14,East,95,1.9,5.8,30,0.00,CLR,,0.00,WeatherDisplay:10.37,2013-04-24 01:43:00,
2013-04-23 21:44:00,60.9,29.2,30.14,East,85,2.4,4.6,30,0.00,CLR,,0.00,WeatherDisplay:10.37,2013-04-24 01:44:00,
2013-04-23 21:46:00,60.4,28.8,30.14,East,88,6.1,6.4,30,0.00,CLR,,0.00,WeatherDisplay:10.37,2013-04-24 01:46:00,
2013-04-23 21:47:00,60.4,28.8,30.14,East,88,6.1,6.4,30,0.00,CLR,,0.00,WeatherDisplay:10.37,2013-04-24 01:47:00,
2013-04-23 21:48:00,60.5,28.9,30.14,East,82,5.7,6.9,30,0.00,CLR,,0.00,WeatherDisplay:10.37,2013-04-24 01:48:00,
2013-04-23 21:49:00,60.8,29.1,30.14,ESE,113,6.2,7.1,30,0.00,CLR,,0.00,WeatherDisplay:10.37,2013-04-24 01:49:00,
2013-04-23 21:52:00,60.4,29.6,30.14,East,97,6.6,8.1,31,0.00,CLR,,0.00,WeatherDisplay:10.37,2013-04-24 01:52:00,
2013-04-23 21:53:00,60.3,29.5,30.13,East,90,5.6,7.0,31,0.00,CLR,,0.00,WeatherDisplay:10.37,2013-04-24 01:53:00,
2013-04-23 21:54:00,60.4,29.6,30.13,ESE,121,6.0,8.1,31,0.00,CLR,,0.00,WeatherDisplay:10.37,2013-04-24 01:54:00,
2013-04-23 21:57:00,60.0,29.2,30.13,ESE,120,6.5,8.1,31,0.00,CLR,,0.00,WeatherDisplay:10.37,2013-04-24 01:57:00,
2013-04-23 21:58:00,59.8,28.3,30.13,SE,126,7.7,8.1,30,0.00,CLR,,0.00,WeatherDisplay:10.37,2013-04-24 01:58:00,
2013-04-23 21:59:00,60.5,29.7,30.13,ESE,107,6.7,10.4,31,0.00,CLR,,0.00,WeatherDisplay:10.37,2013-04-24 01:59:00,
2013-04-23 22:02:00,60.9,30.0,30.13,SE,124,3.4,5.8,31,0.00,CLR,,0.00,WeatherDisplay:10.37,2013-04-24 02:02:00,
2013-04-23 22:04:00,60.4,28.8,30.13,East,80,4.5,5.8,30,0.00,CLR,,0.00,WeatherDisplay:10.37,2013-04-24 02:04:00,
2013-04-23 22:07:00,60.4,29.6,30.13,East,92,5.2,7.0,31,0.00,CLR,,0.00,WeatherDisplay:10.37,2013-04-24 02:07:00,
2013-04-23 22:09:00,60.5,28.9,30.13,East,95,5.5,6.9,30,0.00,CLR,,0.00,WeatherDisplay:10.37,2013-04-24 02:09:00,
2013-04-23 22:11:00,60.4,29.6,30.13,ESE,102,5.2,8.1,31,0.00,CLR,,0.00,WeatherDisplay:10.37,2013-04-24 02:11:00,
2013-04-23 22:13:00,59.9,29.2,30.13,ESE,102,5.7,8.1,31,0.00,CLR,,0.00,WeatherDisplay:10.37,2013-04-24 02:13:00,
2013-04-23 22:14:00,60.2,29.4,30.13,ESE,106,5.0,8.1,31,0.00,CLR,,0.00,WeatherDisplay:10.37,2013-04-24 02:14:00,
2013-04-23 22:16:00,60.3,30.3,30.13,SE,131,5.1,5.8,32,0.00,CLR,,0.00,WeatherDisplay:10.37,2013-04-24 02:16:00,
2013-04-23 22:19:00,60.2,29.4,30.13,East,99,5.9,7.6,31,0.00,CLR,,0.00,WeatherDisplay:10.37,2013-04-24 02:19:00,
2013-04-23 22:20:00,60.1,29.3,30.13,ENE,72,6.0,6.9,31,0.00,CLR,,0.00,WeatherDisplay:10.37,2013-04-24 02:20:00,
2013-04-23 22:24:00,60.1,30.1,30.13,ENE,76,5.4,8.1,32,0.00,CLR,,0.00,WeatherDisplay:10.37,2013-04-24 02:24:00,
2013-04-23 22:25:00,59.7,29.8,30.13,East,86,3.1,8.1,32,0.00,CLR,,0.00,WeatherDisplay:10.37,2013-04-24 02:25:00,
2013-04-23 22:30:00,60.0,30.0,30.12,ESE,107,2.3,4.6,32,0.00,CLR,,0.00,WeatherDisplay:10.37,2013-04-24 02:30:00,
2013-04-23 22:31:00,59.7,29.8,30.12,East,95,3.2,6.8,32,0.00,CLR,,0.00,WeatherDisplay:10.37,2013-04-24 02:31:00,
2013-04-23 22:36:00,59.4,30.3,30.12,East,93,5.7,6.9,33,0.00,CLR,,0.00,WeatherDisplay:10.37,2013-04-24 02:36:00,
2013-04-23 22:37:00,59.1,29.2,30.12,East,99,6.2,6.9,32,0.00,CLR,,0.00,WeatherDisplay:10.37,2013-04-24 02:37:00,
2013-04-23 22:39:00,59.5,30.3,30.12,ESE,102,3.8,7.7,33,0.00,CLR,,0.00,WeatherDisplay:10.37,2013-04-24 02:39:00,
2013-04-23 22:42:00,59.2,30.1,30.12,East,100,5.8,8.1,33,0.00,CLR,,0.00,WeatherDisplay:10.37,2013-04-24 02:42:00,
2013-04-23 22:43:00,59.2,30.8,30.12,SE,143,3.0,6.9,34,0.00,CLR,,0.00,WeatherDisplay:10.37,2013-04-24 02:43:00,
2013-04-23 22:44:00,59.9,30.7,30.13,SE,143,0.0,3.5,33,0.00,CLR,,0.00,WeatherDisplay:10.37,2013-04-24 02:44:00,
2013-04-23 22:45:00,59.3,30.2,30.13,SE,143,0.0,3.5,33,0.00,CLR,,0.00,WeatherDisplay:10.37,2013-04-24 02:45:00,
2013-04-23 22:48:00,59.7,30.5,30.13,ESE,116,3.8,4.6,33,0.00,CLR,,0.00,WeatherDisplay:10.37,2013-04-24 02:48:00,
2013-04-23 22:49:00,59.7,30.5,30.13,SE,126,4.1,8.1,33,0.00,CLR,,0.00,WeatherDisplay:10.37,2013-04-24 02:49:00,
2013-04-23 22:50:00,59.5,30.3,30.13,ESE,102,4.5,6.9,33,0.00,CLR,,0.00,WeatherDisplay:10.37,2013-04-24 02:50:00,
2013-04-23 22:52:00,59.4,31.0,30.13,SE,140,3.1,5.8,34,0.00,CLR,,0.00,WeatherDisplay:10.37,2013-04-24 02:52:00,
2013-04-23 22:53:00,59.3,30.2,30.13,ESE,103,2.4,5.8,33,0.00,CLR,,0.00,WeatherDisplay:10.37,2013-04-24 02:53:00,
2013-04-23 22:55:00,59.3,30.2,30.13,East,79,3.1,4.6,33,0.00,CLR,,0.00,WeatherDisplay:10.37,2013-04-24 02:55:00,
2013-04-23 22:56:00,59.3,30.9,30.13,East,85,1.5,3.5,34,0.00,CLR,,0.00,WeatherDisplay:10.37,2013-04-24 02:56:00,
2013-04-23 22:57:00,58.0,29.8,30.13,East,86,4.2,5.8,34,0.00,CLR,,0.00,WeatherDisplay:10.37,2013-04-24 02:57:00,
2013-04-23 23:00:00,59.2,30.8,30.13,ESE,106,2.6,6.0,34,0.00,CLR,,0.00,WeatherDisplay:10.37,2013-04-24 03:00:00,
2013-04-23 23:02:00,57.3,29.9,30.13,East,100,5.5,6.9,35,0.00,CLR,,0.00,WeatherDisplay:10.37,2013-04-24 03:02:00,
2013-04-23 23:05:00,58.1,30.6,30.13,ESE,121,3.3,5.0,35,0.00,CLR,,0.00,WeatherDisplay:10.37,2013-04-24 03:05:00,
2013-04-23 23:07:00,59.4,31.7,30.13,SE,130,1.9,4.6,35,0.00,CLR,,0.00,WeatherDisplay:10.37,2013-04-24 03:07:00,
2013-04-23 23:08:00,57.8,29.6,30.14,East,96,1.7,4.6,34,0.00,CLR,,0.00,WeatherDisplay:10.37,2013-04-24 03:08:00,
2013-04-23 23:10:00,59.1,31.4,30.14,ESE,109,0.0,0.0,35,0.00,CLR,,0.00,WeatherDisplay:10.37,2013-04-24 03:10:00,
2013-04-23 23:12:00,59.4,31.0,30.14,ESE,109,0.0,0.0,34,0.00,CLR,,0.00,WeatherDisplay:10.37,2013-04-24 03:12:00,
2013-04-23 23:15:00,59.1,30.7,30.14,ESE,102,2.7,5.8,34,0.00,CLR,,0.00,WeatherDisplay:10.37,2013-04-24 03:15:00,
2013-04-23 23:16:00,57.6,30.1,30.14,ENE,68,4.2,5.8,35,0.00,CLR,,0.00,WeatherDisplay:10.37,2013-04-24 03:16:00,
2013-04-23 23:17:00,57.4,30.6,30.14,ENE,68,1.4,5.8,36,0.00,CLR,,0.00,WeatherDisplay:10.37,2013-04-24 03:17:00,
2013-04-23 23:21:00,57.6,30.8,30.13,ESE,104,2.8,4.6,36,0.00,CLR,,0.00,WeatherDisplay:10.37,2013-04-24 03:21:00,
2013-04-23 23:22:00,57.2,31.1,30.14,East,96,1.6,4.6,37,0.00,CLR,,0.00,WeatherDisplay:10.37,2013-04-24 03:22:00,
2013-04-23 23:23:00,58.2,32.0,30.14,East,96,0.0,3.5,37,0.00,CLR,,0.00,WeatherDisplay:10.37,2013-04-24 03:23:00,
2013-04-23 23:24:00,57.0,30.3,30.14,East,96,0.0,0.0,36,0.00,CLR,,0.00,WeatherDisplay:10.37,2013-04-24 03:24:00,
2013-04-23 23:27:00,55.9,30.0,30.13,East,96,0.0,0.0,37,0.00,CLR,,0.00,WeatherDisplay:10.37,2013-04-24 03:27:00,
2013-04-23 23:28:00,56.0,30.7,30.14,East,96,0.0,0.0,38,0.00,CLR,,0.00,WeatherDisplay:10.37,2013-04-24 03:28:00,
2013-04-23 23:29:00,56.2,30.9,30.14,East,96,0.0,0.0,38,0.00,CLR,,0.00,WeatherDisplay:10.37,2013-04-24 03:29:00,
2013-04-23 23:30:00,56.4,31.7,30.14,East,96,0.0,0.0,39,0.00,CLR,,0.00,WeatherDisplay:10.37,2013-04-24 03:30:00,
2013-04-23 23:33:00,54.7,30.2,30.14,East,96,0.0,0.0,39,0.00,CLR,,0.00,WeatherDisplay:10.37,2013-04-24 03:33:00,
2013-04-23 23:34:00,54.9,31.0,30.14,East,82,2.4,4.6,40,0.00,CLR,,0.00,WeatherDisplay:10.37,2013-04-24 03:34:00,
2013-04-23 23:35:00,54.5,30.6,30.14,ENE,78,3.3,4.6,40,0.00,CLR,,0.00,WeatherDisplay:10.37,2013-04-24 03:35:00,
2013-04-23 23:36:00,53.8,30.6,30.14,ENE,78,0.5,3.5,41,0.00,CLR,,0.00,WeatherDisplay:10.37,2013-04-24 03:36:00,
2013-04-23 23:39:00,54.7,31.4,30.14,ENE,62,2.0,3.5,41,0.00,CLR,,0.00,WeatherDisplay:10.37,2013-04-24 03:39:00,
2013-04-23 23:40:00,54.9,31.6,30.14,ENE,62,0.7,3.5,41,0.00,CLR,,0.00,WeatherDisplay:10.37,2013-04-24 03:40:00,
2013-04-23 23:42:00,54.5,31.3,30.14,ENE,62,0.0,0.0,41,0.00,CLR,,0.00,WeatherDisplay:10.37,2013-04-24 03:42:00,
2013-04-23 23:45:00,54.2,31.0,30.14,East,96,2.9,5.2,41,0.00,CLR,,0.00,WeatherDisplay:10.37,2013-04-24 03:45:00,
2013-04-23 23:49:00,53.6,31.6,30.14,ENE,64,0.8,4.6,43,0.00,CLR,,0.00,WeatherDisplay:10.37,2013-04-24 03:49:00,
2013-04-23 23:50:00,53.4,31.4,30.14,ENE,64,0.0,0.0,43,0.00,CLR,,0.00,WeatherDisplay:10.37,2013-04-24 03:50:00,
2013-04-23 23:51:00,53.4,32.0,30.14,ENE,64,0.0,0.0,44,0.00,CLR,,0.00,WeatherDisplay:10.37,2013-04-24 03:51:00,
2013-04-23 23:54:00,53.4,32.6,30.14,ENE,64,0.0,0.0,45,0.00,CLR,,0.00,WeatherDisplay:10.37,2013-04-24 03:54:00,
2013-04-23 23:57:00,52.5,31.2,30.14,ENE,64,0.0,0.0,44,0.00,CLR,,0.00,WeatherDisplay:10.37,2013-04-24 03:57:00,
2013-04-23 23:59:00,53.9,32.5,30.14,East,92,3.9,6.0,44,0.00,CLR,,0.00,WeatherDisplay:10.37,2013-04-24 03:59:00,